<?xml version="1.0" encoding="UTF-8" standalone="yes"?>
<gpx
 xmlns="http://www.topografix.com/GPX/1/1"
 creator="OziExplorer Version 3956f - http://www.oziexplorer.com"
 version="1.1"
 xmlns:xsi="http://www.w3.org/2001/XMLSchema-instance"
 xsi:schemaLocation="http://www.topografix.com/GPX/1/1 http://www.topografix.com/GPX/1/1/gpx.xsd">
<metadata>
 <time>2022-01-17T07:59:44Z</time>
 <bounds minlat="31.784890" minlon="34.989130" maxlat="31.819550" maxlon="35.019830"/>
</metadata>
<trk>
 <name>Eshtaol_V_Rain_21km</name>
 <desc>Eshtaol_V_Rain_21km</desc>
<trkseg>
<trkpt lat="31.8114500" lon="35.0131700">
<ele>275.750000</ele>
<time>2022-01-17T09:59:44.074Z</time>
</trkpt>
<trkpt lat="31.8114200" lon="35.0133100">
<ele>275.440002</ele>
<time>2022-01-17T09:59:44.074Z</time>
</trkpt>
<trkpt lat="31.8112900" lon="35.0136000">
<ele>275.919983</ele>
<time>2022-01-17T09:59:44.074Z</time>
</trkpt>
<trkpt lat="31.8109800" lon="35.0141300">
<ele>276.510010</ele>
<time>2022-01-17T09:59:44.074Z</time>
</trkpt>
<trkpt lat="31.8105300" lon="35.0149400">
<ele>283.160004</ele>
<time>2022-01-17T09:59:44.074Z</time>
</trkpt>
<trkpt lat="31.8104700" lon="35.0151900">
<ele>285.110016</ele>
<time>2022-01-17T09:59:44.074Z</time>
</trkpt>
<trkpt lat="31.8103500" lon="35.0154900">
<ele>284.700012</ele>
<time>2022-01-17T09:59:44.074Z</time>
</trkpt>
<trkpt lat="31.8102800" lon="35.0157800">
<ele>283.200012</ele>
<time>2022-01-17T09:59:44.074Z</time>
</trkpt>
<trkpt lat="31.8101500" lon="35.0161300">
<ele>284.609985</ele>
<time>2022-01-17T09:59:44.074Z</time>
</trkpt>
<trkpt lat="31.8100100" lon="35.0165600">
<ele>284.130005</ele>
<time>2022-01-17T09:59:44.074Z</time>
</trkpt>
<trkpt lat="31.8098200" lon="35.0170700">
<ele>286.190002</ele>
<time>2022-01-17T09:59:44.075Z</time>
</trkpt>
<trkpt lat="31.8097200" lon="35.0173300">
<ele>286.399994</ele>
<time>2022-01-17T09:59:44.075Z</time>
</trkpt>
<trkpt lat="31.8097000" lon="35.0174500">
<ele>286.980011</ele>
<time>2022-01-17T09:59:44.075Z</time>
</trkpt>
<trkpt lat="31.8097700" lon="35.0175100">
<ele>287.029999</ele>
<time>2022-01-17T09:59:44.075Z</time>
</trkpt>
<trkpt lat="31.8098900" lon="35.0175300">
<ele>287.040009</ele>
<time>2022-01-17T09:59:44.075Z</time>
</trkpt>
<trkpt lat="31.8099600" lon="35.0176200">
<ele>287.059998</ele>
<time>2022-01-17T09:59:44.075Z</time>
</trkpt>
<trkpt lat="31.8099800" lon="35.0177300">
<ele>287.059998</ele>
<time>2022-01-17T09:59:44.075Z</time>
</trkpt>
<trkpt lat="31.8100100" lon="35.0178400">
<ele>287.320007</ele>
<time>2022-01-17T09:59:44.075Z</time>
</trkpt>
<trkpt lat="31.8101200" lon="35.0180100">
<ele>288.410004</ele>
<time>2022-01-17T09:59:44.075Z</time>
</trkpt>
<trkpt lat="31.8103300" lon="35.0182400">
<ele>291.079987</ele>
<time>2022-01-17T09:59:44.075Z</time>
</trkpt>
<trkpt lat="31.8106700" lon="35.0185500">
<ele>293.589996</ele>
<time>2022-01-17T09:59:44.075Z</time>
</trkpt>
<trkpt lat="31.8106900" lon="35.0185800">
<ele>293.519989</ele>
<time>2022-01-17T09:59:44.075Z</time>
</trkpt>
<trkpt lat="31.8107300" lon="35.0186200">
<ele>293.440002</ele>
<time>2022-01-17T09:59:44.075Z</time>
</trkpt>
<trkpt lat="31.8107600" lon="35.0187100">
<ele>294.140015</ele>
<time>2022-01-17T09:59:44.075Z</time>
</trkpt>
<trkpt lat="31.8107600" lon="35.0187100">
<ele>294.140015</ele>
<time>2022-01-17T09:59:44.075Z</time>
</trkpt>
<trkpt lat="31.8107600" lon="35.0187100">
<ele>294.140015</ele>
<time>2022-01-17T09:59:44.075Z</time>
</trkpt>
<trkpt lat="31.8107600" lon="35.0187200">
<ele>294.230011</ele>
<time>2022-01-17T09:59:44.075Z</time>
</trkpt>
<trkpt lat="31.8107800" lon="35.0189500">
<ele>296.070007</ele>
<time>2022-01-17T09:59:44.075Z</time>
</trkpt>
<trkpt lat="31.8108300" lon="35.0191800">
<ele>297.190002</ele>
<time>2022-01-17T09:59:44.075Z</time>
</trkpt>
<trkpt lat="31.8108800" lon="35.0193000">
<ele>299.359985</ele>
<time>2022-01-17T09:59:44.075Z</time>
</trkpt>
<trkpt lat="31.8109300" lon="35.0193900">
<ele>300.559998</ele>
<time>2022-01-17T09:59:44.075Z</time>
</trkpt>
<trkpt lat="31.8109900" lon="35.0194700">
<ele>301.369995</ele>
<time>2022-01-17T09:59:44.075Z</time>
</trkpt>
<trkpt lat="31.8110700" lon="35.0195100">
<ele>301.940002</ele>
<time>2022-01-17T09:59:44.075Z</time>
</trkpt>
<trkpt lat="31.8111500" lon="35.0195700">
<ele>303.699982</ele>
<time>2022-01-17T09:59:44.075Z</time>
</trkpt>
<trkpt lat="31.8113900" lon="35.0197000">
<ele>307.330017</ele>
<time>2022-01-17T09:59:44.075Z</time>
</trkpt>
<trkpt lat="31.8115300" lon="35.0197800">
<ele>308.830017</ele>
<time>2022-01-17T09:59:44.076Z</time>
</trkpt>
<trkpt lat="31.8116100" lon="35.0198100">
<ele>309.769989</ele>
<time>2022-01-17T09:59:44.076Z</time>
</trkpt>
<trkpt lat="31.8117100" lon="35.0198300">
<ele>312.170013</ele>
<time>2022-01-17T09:59:44.076Z</time>
</trkpt>
<trkpt lat="31.8118000" lon="35.0198000">
<ele>315.980011</ele>
<time>2022-01-17T09:59:44.076Z</time>
</trkpt>
<trkpt lat="31.8118800" lon="35.0197300">
<ele>319.930023</ele>
<time>2022-01-17T09:59:44.076Z</time>
</trkpt>
<trkpt lat="31.8119100" lon="35.0195900">
<ele>319.840027</ele>
<time>2022-01-17T09:59:44.076Z</time>
</trkpt>
<trkpt lat="31.8121300" lon="35.0188000">
<ele>320.899994</ele>
<time>2022-01-17T09:59:44.076Z</time>
</trkpt>
<trkpt lat="31.8121300" lon="35.0188000">
<ele>320.899994</ele>
<time>2022-01-17T09:59:44.076Z</time>
</trkpt>
<trkpt lat="31.8121300" lon="35.0188000">
<ele>320.899994</ele>
<time>2022-01-17T09:59:44.076Z</time>
</trkpt>
<trkpt lat="31.8121400" lon="35.0187800">
<ele>321.109985</ele>
<time>2022-01-17T09:59:44.076Z</time>
</trkpt>
<trkpt lat="31.8121800" lon="35.0187100">
<ele>321.989990</ele>
<time>2022-01-17T09:59:44.076Z</time>
</trkpt>
<trkpt lat="31.8122500" lon="35.0186900">
<ele>323.160004</ele>
<time>2022-01-17T09:59:44.076Z</time>
</trkpt>
<trkpt lat="31.8123000" lon="35.0186400">
<ele>323.339996</ele>
<time>2022-01-17T09:59:44.076Z</time>
</trkpt>
<trkpt lat="31.8123000" lon="35.0186400">
<ele>323.339996</ele>
<time>2022-01-17T09:59:44.076Z</time>
</trkpt>
<trkpt lat="31.8123400" lon="35.0186200">
<ele>323.449982</ele>
<time>2022-01-17T09:59:44.076Z</time>
</trkpt>
<trkpt lat="31.8124500" lon="35.0186700">
<ele>324.170013</ele>
<time>2022-01-17T09:59:44.076Z</time>
</trkpt>
<trkpt lat="31.8128700" lon="35.0188900">
<ele>331.660004</ele>
<time>2022-01-17T09:59:44.076Z</time>
</trkpt>
<trkpt lat="31.8130400" lon="35.0189200">
<ele>332.459991</ele>
<time>2022-01-17T09:59:44.076Z</time>
</trkpt>
<trkpt lat="31.8141800" lon="35.0188400">
<ele>340.260010</ele>
<time>2022-01-17T09:59:44.076Z</time>
</trkpt>
<trkpt lat="31.8143600" lon="35.0187800">
<ele>341.240021</ele>
<time>2022-01-17T09:59:44.076Z</time>
</trkpt>
<trkpt lat="31.8146900" lon="35.0186900">
<ele>343.179993</ele>
<time>2022-01-17T09:59:44.076Z</time>
</trkpt>
<trkpt lat="31.8151500" lon="35.0185000">
<ele>337.839996</ele>
<time>2022-01-17T09:59:44.076Z</time>
</trkpt>
<trkpt lat="31.8154700" lon="35.0183700">
<ele>337.880005</ele>
<time>2022-01-17T09:59:44.076Z</time>
</trkpt>
<trkpt lat="31.8154700" lon="35.0183700">
<ele>337.880005</ele>
<time>2022-01-17T09:59:44.076Z</time>
</trkpt>
<trkpt lat="31.8155200" lon="35.0183600">
<ele>338.389984</ele>
<time>2022-01-17T09:59:44.076Z</time>
</trkpt>
<trkpt lat="31.8155700" lon="35.0182300">
<ele>339.239990</ele>
<time>2022-01-17T09:59:44.076Z</time>
</trkpt>
<trkpt lat="31.8154200" lon="35.0178500">
<ele>341.609985</ele>
<time>2022-01-17T09:59:44.077Z</time>
</trkpt>
<trkpt lat="31.8151300" lon="35.0173100">
<ele>349.890015</ele>
<time>2022-01-17T09:59:44.077Z</time>
</trkpt>
<trkpt lat="31.8150400" lon="35.0170300">
<ele>349.779999</ele>
<time>2022-01-17T09:59:44.077Z</time>
</trkpt>
<trkpt lat="31.8150900" lon="35.0166400">
<ele>350.320007</ele>
<time>2022-01-17T09:59:44.077Z</time>
</trkpt>
<trkpt lat="31.8152300" lon="35.0154600">
<ele>344.750000</ele>
<time>2022-01-17T09:59:44.077Z</time>
</trkpt>
<trkpt lat="31.8154600" lon="35.0146000">
<ele>341.890015</ele>
<time>2022-01-17T09:59:44.077Z</time>
</trkpt>
<trkpt lat="31.8156900" lon="35.0141900">
<ele>338.399994</ele>
<time>2022-01-17T09:59:44.077Z</time>
</trkpt>
<trkpt lat="31.8157300" lon="35.0139700">
<ele>341.230011</ele>
<time>2022-01-17T09:59:44.077Z</time>
</trkpt>
<trkpt lat="31.8157600" lon="35.0135900">
<ele>348.429993</ele>
<time>2022-01-17T09:59:44.077Z</time>
</trkpt>
<trkpt lat="31.8160500" lon="35.0131000">
<ele>343.760010</ele>
<time>2022-01-17T09:59:44.077Z</time>
</trkpt>
<trkpt lat="31.8161300" lon="35.0127300">
<ele>344.049988</ele>
<time>2022-01-17T09:59:44.077Z</time>
</trkpt>
<trkpt lat="31.8161900" lon="35.0123100">
<ele>344.450012</ele>
<time>2022-01-17T09:59:44.077Z</time>
</trkpt>
<trkpt lat="31.8162700" lon="35.0118600">
<ele>342.369995</ele>
<time>2022-01-17T09:59:44.077Z</time>
</trkpt>
<trkpt lat="31.8166400" lon="35.0112200">
<ele>343.410004</ele>
<time>2022-01-17T09:59:44.077Z</time>
</trkpt>
<trkpt lat="31.8167500" lon="35.0106800">
<ele>343.680023</ele>
<time>2022-01-17T09:59:44.077Z</time>
</trkpt>
<trkpt lat="31.8167700" lon="35.0104300">
<ele>342.700012</ele>
<time>2022-01-17T09:59:44.077Z</time>
</trkpt>
<trkpt lat="31.8167400" lon="35.0100000">
<ele>337.109985</ele>
<time>2022-01-17T09:59:44.077Z</time>
</trkpt>
<trkpt lat="31.8167400" lon="35.0093200">
<ele>331.830017</ele>
<time>2022-01-17T09:59:44.077Z</time>
</trkpt>
<trkpt lat="31.8167900" lon="35.0089500">
<ele>330.010010</ele>
<time>2022-01-17T09:59:44.077Z</time>
</trkpt>
<trkpt lat="31.8168400" lon="35.0087000">
<ele>328.539978</ele>
<time>2022-01-17T09:59:44.077Z</time>
</trkpt>
<trkpt lat="31.8169200" lon="35.0084600">
<ele>326.619995</ele>
<time>2022-01-17T09:59:44.077Z</time>
</trkpt>
<trkpt lat="31.8170600" lon="35.0081200">
<ele>323.589996</ele>
<time>2022-01-17T09:59:44.077Z</time>
</trkpt>
<trkpt lat="31.8174200" lon="35.0074400">
<ele>324.660004</ele>
<time>2022-01-17T09:59:44.077Z</time>
</trkpt>
<trkpt lat="31.8174900" lon="35.0073400">
<ele>324.559998</ele>
<time>2022-01-17T09:59:44.077Z</time>
</trkpt>
<trkpt lat="31.8178800" lon="35.0068300">
<ele>324.220001</ele>
<time>2022-01-17T09:59:44.077Z</time>
</trkpt>
<trkpt lat="31.8185500" lon="35.0061200">
<ele>328.910004</ele>
<time>2022-01-17T09:59:44.078Z</time>
</trkpt>
<trkpt lat="31.8187400" lon="35.0058800">
<ele>330.619995</ele>
<time>2022-01-17T09:59:44.078Z</time>
</trkpt>
<trkpt lat="31.8187800" lon="35.0058000">
<ele>330.779999</ele>
<time>2022-01-17T09:59:44.078Z</time>
</trkpt>
<trkpt lat="31.8187900" lon="35.0051700">
<ele>330.350006</ele>
<time>2022-01-17T09:59:44.078Z</time>
</trkpt>
<trkpt lat="31.8188100" lon="35.0048700">
<ele>325.620026</ele>
<time>2022-01-17T09:59:44.078Z</time>
</trkpt>
<trkpt lat="31.8190700" lon="35.0032200">
<ele>305.320007</ele>
<time>2022-01-17T09:59:44.078Z</time>
</trkpt>
<trkpt lat="31.8190400" lon="35.0032100">
<ele>304.329987</ele>
<time>2022-01-17T09:59:44.078Z</time>
</trkpt>
<trkpt lat="31.8190400" lon="35.0032100">
<ele>304.329987</ele>
<time>2022-01-17T09:59:44.078Z</time>
</trkpt>
<trkpt lat="31.8190700" lon="35.0032200">
<ele>305.320007</ele>
<time>2022-01-17T09:59:44.078Z</time>
</trkpt>
<trkpt lat="31.8191800" lon="35.0025300">
<ele>298.519989</ele>
<time>2022-01-17T09:59:44.078Z</time>
</trkpt>
<trkpt lat="31.8192600" lon="35.0013100">
<ele>287.539978</ele>
<time>2022-01-17T09:59:44.078Z</time>
</trkpt>
<trkpt lat="31.8193300" lon="35.0008000">
<ele>282.040009</ele>
<time>2022-01-17T09:59:44.078Z</time>
</trkpt>
<trkpt lat="31.8193200" lon="35.0003000">
<ele>277.720001</ele>
<time>2022-01-17T09:59:44.078Z</time>
</trkpt>
<trkpt lat="31.8192100" lon="34.9998500">
<ele>271.320007</ele>
<time>2022-01-17T09:59:44.079Z</time>
</trkpt>
<trkpt lat="31.8191900" lon="34.9996400">
<ele>265.859985</ele>
<time>2022-01-17T09:59:44.079Z</time>
</trkpt>
<trkpt lat="31.8192300" lon="34.9994800">
<ele>262.089996</ele>
<time>2022-01-17T09:59:44.079Z</time>
</trkpt>
<trkpt lat="31.8194400" lon="34.9991300">
<ele>260.940002</ele>
<time>2022-01-17T09:59:44.079Z</time>
</trkpt>
<trkpt lat="31.8194400" lon="34.9991300">
<ele>260.940002</ele>
<time>2022-01-17T09:59:44.079Z</time>
</trkpt>
<trkpt lat="31.8194800" lon="34.9990600">
<ele>259.750000</ele>
<time>2022-01-17T09:59:44.079Z</time>
</trkpt>
<trkpt lat="31.8195500" lon="34.9988400">
<ele>256.019989</ele>
<time>2022-01-17T09:59:44.079Z</time>
</trkpt>
<trkpt lat="31.8195200" lon="34.9988600">
<ele>255.759995</ele>
<time>2022-01-17T09:59:44.079Z</time>
</trkpt>
<trkpt lat="31.8194900" lon="34.9988300">
<ele>254.910004</ele>
<time>2022-01-17T09:59:44.079Z</time>
</trkpt>
<trkpt lat="31.8194000" lon="34.9987700">
<ele>252.690002</ele>
<time>2022-01-17T09:59:44.079Z</time>
</trkpt>
<trkpt lat="31.8192500" lon="34.9987700">
<ele>250.690002</ele>
<time>2022-01-17T09:59:44.079Z</time>
</trkpt>
<trkpt lat="31.8192200" lon="34.9987900">
<ele>250.400009</ele>
<time>2022-01-17T09:59:44.079Z</time>
</trkpt>
<trkpt lat="31.8191100" lon="34.9988900">
<ele>249.190002</ele>
<time>2022-01-17T09:59:44.079Z</time>
</trkpt>
<trkpt lat="31.8188300" lon="34.9992800">
<ele>246.940002</ele>
<time>2022-01-17T09:59:44.079Z</time>
</trkpt>
<trkpt lat="31.8186900" lon="34.9994000">
<ele>247.789993</ele>
<time>2022-01-17T09:59:44.079Z</time>
</trkpt>
<trkpt lat="31.8186200" lon="34.9993100">
<ele>247.500000</ele>
<time>2022-01-17T09:59:44.079Z</time>
</trkpt>
<trkpt lat="31.8185600" lon="34.9991600">
<ele>246.979996</ele>
<time>2022-01-17T09:59:44.079Z</time>
</trkpt>
<trkpt lat="31.8184700" lon="34.9988800">
<ele>246.480011</ele>
<time>2022-01-17T09:59:44.079Z</time>
</trkpt>
<trkpt lat="31.8184700" lon="34.9984200">
<ele>243.089996</ele>
<time>2022-01-17T09:59:44.079Z</time>
</trkpt>
<trkpt lat="31.8185200" lon="34.9981700">
<ele>239.460007</ele>
<time>2022-01-17T09:59:44.079Z</time>
</trkpt>
<trkpt lat="31.8186000" lon="34.9979300">
<ele>235.699997</ele>
<time>2022-01-17T09:59:44.079Z</time>
</trkpt>
<trkpt lat="31.8191300" lon="34.9970300">
<ele>228.580002</ele>
<time>2022-01-17T09:59:44.079Z</time>
</trkpt>
<trkpt lat="31.8191900" lon="34.9968300">
<ele>226.949997</ele>
<time>2022-01-17T09:59:44.079Z</time>
</trkpt>
<trkpt lat="31.8191900" lon="34.9967300">
<ele>225.809998</ele>
<time>2022-01-17T09:59:44.079Z</time>
</trkpt>
<trkpt lat="31.8191900" lon="34.9966600">
<ele>224.959991</ele>
<time>2022-01-17T09:59:44.080Z</time>
</trkpt>
<trkpt lat="31.8191700" lon="34.9965700">
<ele>223.259995</ele>
<time>2022-01-17T09:59:44.080Z</time>
</trkpt>
<trkpt lat="31.8191500" lon="34.9964800">
<ele>221.820007</ele>
<time>2022-01-17T09:59:44.080Z</time>
</trkpt>
<trkpt lat="31.8191500" lon="34.9964800">
<ele>221.820007</ele>
<time>2022-01-17T09:59:44.080Z</time>
</trkpt>
<trkpt lat="31.8191500" lon="34.9964800">
<ele>221.820007</ele>
<time>2022-01-17T09:59:44.080Z</time>
</trkpt>
<trkpt lat="31.8191500" lon="34.9964500">
<ele>221.300003</ele>
<time>2022-01-17T09:59:44.080Z</time>
</trkpt>
<trkpt lat="31.8190200" lon="34.9962300">
<ele>221.269989</ele>
<time>2022-01-17T09:59:44.080Z</time>
</trkpt>
<trkpt lat="31.8190200" lon="34.9962300">
<ele>221.269989</ele>
<time>2022-01-17T09:59:44.080Z</time>
</trkpt>
<trkpt lat="31.8190200" lon="34.9962300">
<ele>221.269989</ele>
<time>2022-01-17T09:59:44.080Z</time>
</trkpt>
<trkpt lat="31.8190200" lon="34.9962300">
<ele>221.269989</ele>
<time>2022-01-17T09:59:44.080Z</time>
</trkpt>
<trkpt lat="31.8188900" lon="34.9960000">
<ele>222.580002</ele>
<time>2022-01-17T09:59:44.080Z</time>
</trkpt>
<trkpt lat="31.8188400" lon="34.9958300">
<ele>222.550003</ele>
<time>2022-01-17T09:59:44.080Z</time>
</trkpt>
<trkpt lat="31.8188100" lon="34.9957000">
<ele>223.539993</ele>
<time>2022-01-17T09:59:44.080Z</time>
</trkpt>
<trkpt lat="31.8187200" lon="34.9955400">
<ele>224.690002</ele>
<time>2022-01-17T09:59:44.080Z</time>
</trkpt>
<trkpt lat="31.8187200" lon="34.9953700">
<ele>225.539993</ele>
<time>2022-01-17T09:59:44.080Z</time>
</trkpt>
<trkpt lat="31.8187500" lon="34.9952500">
<ele>226.100006</ele>
<time>2022-01-17T09:59:44.080Z</time>
</trkpt>
<trkpt lat="31.8188500" lon="34.9949800">
<ele>231.159988</ele>
<time>2022-01-17T09:59:44.081Z</time>
</trkpt>
<trkpt lat="31.8188500" lon="34.9948500">
<ele>234.770004</ele>
<time>2022-01-17T09:59:44.081Z</time>
</trkpt>
<trkpt lat="31.8188300" lon="34.9947700">
<ele>236.149994</ele>
<time>2022-01-17T09:59:44.081Z</time>
</trkpt>
<trkpt lat="31.8187800" lon="34.9947100">
<ele>235.710007</ele>
<time>2022-01-17T09:59:44.081Z</time>
</trkpt>
<trkpt lat="31.8186700" lon="34.9946000">
<ele>235.699997</ele>
<time>2022-01-17T09:59:44.081Z</time>
</trkpt>
<trkpt lat="31.8185300" lon="34.9945600">
<ele>234.739990</ele>
<time>2022-01-17T09:59:44.081Z</time>
</trkpt>
<trkpt lat="31.8183500" lon="34.9945500">
<ele>233.149994</ele>
<time>2022-01-17T09:59:44.081Z</time>
</trkpt>
<trkpt lat="31.8182800" lon="34.9945200">
<ele>233.649994</ele>
<time>2022-01-17T09:59:44.081Z</time>
</trkpt>
<trkpt lat="31.8181400" lon="34.9945000">
<ele>233.559998</ele>
<time>2022-01-17T09:59:44.081Z</time>
</trkpt>
<trkpt lat="31.8180700" lon="34.9944700">
<ele>233.720001</ele>
<time>2022-01-17T09:59:44.081Z</time>
</trkpt>
<trkpt lat="31.8177900" lon="34.9944100">
<ele>239.659988</ele>
<time>2022-01-17T09:59:44.081Z</time>
</trkpt>
<trkpt lat="31.8177900" lon="34.9944100">
<ele>239.659988</ele>
<time>2022-01-17T09:59:44.081Z</time>
</trkpt>
<trkpt lat="31.8177900" lon="34.9944100">
<ele>239.659988</ele>
<time>2022-01-17T09:59:44.081Z</time>
</trkpt>
<trkpt lat="31.8176200" lon="34.9943500">
<ele>242.710007</ele>
<time>2022-01-17T09:59:44.081Z</time>
</trkpt>
<trkpt lat="31.8174800" lon="34.9943300">
<ele>244.579987</ele>
<time>2022-01-17T09:59:44.082Z</time>
</trkpt>
<trkpt lat="31.8172900" lon="34.9942200">
<ele>250.489990</ele>
<time>2022-01-17T09:59:44.082Z</time>
</trkpt>
<trkpt lat="31.8172100" lon="34.9941400">
<ele>253.600006</ele>
<time>2022-01-17T09:59:44.082Z</time>
</trkpt>
<trkpt lat="31.8171000" lon="34.9938700">
<ele>258.640015</ele>
<time>2022-01-17T09:59:44.082Z</time>
</trkpt>
<trkpt lat="31.8170100" lon="34.9935900">
<ele>262.010010</ele>
<time>2022-01-17T09:59:44.082Z</time>
</trkpt>
<trkpt lat="31.8169200" lon="34.9931300">
<ele>265.399994</ele>
<time>2022-01-17T09:59:44.082Z</time>
</trkpt>
<trkpt lat="31.8168300" lon="34.9929500">
<ele>263.209991</ele>
<time>2022-01-17T09:59:44.082Z</time>
</trkpt>
<trkpt lat="31.8167400" lon="34.9928800">
<ele>261.160004</ele>
<time>2022-01-17T09:59:44.082Z</time>
</trkpt>
<trkpt lat="31.8166300" lon="34.9928800">
<ele>259.479980</ele>
<time>2022-01-17T09:59:44.082Z</time>
</trkpt>
<trkpt lat="31.8165600" lon="34.9928900">
<ele>258.369995</ele>
<time>2022-01-17T09:59:44.082Z</time>
</trkpt>
<trkpt lat="31.8164500" lon="34.9929200">
<ele>256.619995</ele>
<time>2022-01-17T09:59:44.082Z</time>
</trkpt>
<trkpt lat="31.8163300" lon="34.9929800">
<ele>255.300003</ele>
<time>2022-01-17T09:59:44.082Z</time>
</trkpt>
<trkpt lat="31.8162300" lon="34.9930800">
<ele>254.720001</ele>
<time>2022-01-17T09:59:44.082Z</time>
</trkpt>
<trkpt lat="31.8161300" lon="34.9931100">
<ele>253.760010</ele>
<time>2022-01-17T09:59:44.082Z</time>
</trkpt>
<trkpt lat="31.8160500" lon="34.9931100">
<ele>252.639999</ele>
<time>2022-01-17T09:59:44.082Z</time>
</trkpt>
<trkpt lat="31.8159900" lon="34.9930800">
<ele>252.000000</ele>
<time>2022-01-17T09:59:44.082Z</time>
</trkpt>
<trkpt lat="31.8159400" lon="34.9930100">
<ele>252.080002</ele>
<time>2022-01-17T09:59:44.082Z</time>
</trkpt>
<trkpt lat="31.8159300" lon="34.9928900">
<ele>253.520004</ele>
<time>2022-01-17T09:59:44.082Z</time>
</trkpt>
<trkpt lat="31.8159700" lon="34.9927700">
<ele>254.709991</ele>
<time>2022-01-17T09:59:44.082Z</time>
</trkpt>
<trkpt lat="31.8160500" lon="34.9926300">
<ele>256.670013</ele>
<time>2022-01-17T09:59:44.082Z</time>
</trkpt>
<trkpt lat="31.8163800" lon="34.9921500">
<ele>264.119995</ele>
<time>2022-01-17T09:59:44.082Z</time>
</trkpt>
<trkpt lat="31.8165500" lon="34.9917200">
<ele>271.869995</ele>
<time>2022-01-17T09:59:44.083Z</time>
</trkpt>
<trkpt lat="31.8166100" lon="34.9912400">
<ele>284.350006</ele>
<time>2022-01-17T09:59:44.083Z</time>
</trkpt>
<trkpt lat="31.8166300" lon="34.9911400">
<ele>286.570007</ele>
<time>2022-01-17T09:59:44.083Z</time>
</trkpt>
<trkpt lat="31.8166800" lon="34.9910800">
<ele>288.000000</ele>
<time>2022-01-17T09:59:44.083Z</time>
</trkpt>
<trkpt lat="31.8167500" lon="34.9910400">
<ele>288.570007</ele>
<time>2022-01-17T09:59:44.083Z</time>
</trkpt>
<trkpt lat="31.8168200" lon="34.9910400">
<ele>289.270020</ele>
<time>2022-01-17T09:59:44.083Z</time>
</trkpt>
<trkpt lat="31.8169500" lon="34.9911200">
<ele>290.010010</ele>
<time>2022-01-17T09:59:44.083Z</time>
</trkpt>
<trkpt lat="31.8172500" lon="34.9914200">
<ele>293.010010</ele>
<time>2022-01-17T09:59:44.083Z</time>
</trkpt>
<trkpt lat="31.8176000" lon="34.9918500">
<ele>293.680023</ele>
<time>2022-01-17T09:59:44.083Z</time>
</trkpt>
<trkpt lat="31.8178200" lon="34.9920200">
<ele>291.149994</ele>
<time>2022-01-17T09:59:44.083Z</time>
</trkpt>
<trkpt lat="31.8178800" lon="34.9920400">
<ele>290.449982</ele>
<time>2022-01-17T09:59:44.083Z</time>
</trkpt>
<trkpt lat="31.8179600" lon="34.9920500">
<ele>289.910004</ele>
<time>2022-01-17T09:59:44.083Z</time>
</trkpt>
<trkpt lat="31.8180600" lon="34.9920200">
<ele>289.869995</ele>
<time>2022-01-17T09:59:44.083Z</time>
</trkpt>
<trkpt lat="31.8181200" lon="34.9919700">
<ele>289.959991</ele>
<time>2022-01-17T09:59:44.083Z</time>
</trkpt>
<trkpt lat="31.8182100" lon="34.9918100">
<ele>290.250000</ele>
<time>2022-01-17T09:59:44.084Z</time>
</trkpt>
<trkpt lat="31.8182600" lon="34.9918100">
<ele>289.529999</ele>
<time>2022-01-17T09:59:44.084Z</time>
</trkpt>
<trkpt lat="31.8182600" lon="34.9918100">
<ele>289.529999</ele>
<time>2022-01-17T09:59:44.084Z</time>
</trkpt>
<trkpt lat="31.8182100" lon="34.9918100">
<ele>290.250000</ele>
<time>2022-01-17T09:59:44.084Z</time>
</trkpt>
<trkpt lat="31.8180500" lon="34.9916000">
<ele>294.020020</ele>
<time>2022-01-17T09:59:44.084Z</time>
</trkpt>
<trkpt lat="31.8179100" lon="34.9913200">
<ele>295.279999</ele>
<time>2022-01-17T09:59:44.084Z</time>
</trkpt>
<trkpt lat="31.8177000" lon="34.9907800">
<ele>298.209991</ele>
<time>2022-01-17T09:59:44.084Z</time>
</trkpt>
<trkpt lat="31.8174400" lon="34.9902800">
<ele>302.339996</ele>
<time>2022-01-17T09:59:44.084Z</time>
</trkpt>
<trkpt lat="31.8173700" lon="34.9900100">
<ele>299.220001</ele>
<time>2022-01-17T09:59:44.084Z</time>
</trkpt>
<trkpt lat="31.8172400" lon="34.9900400">
<ele>297.679993</ele>
<time>2022-01-17T09:59:44.084Z</time>
</trkpt>
<trkpt lat="31.8172400" lon="34.9900400">
<ele>297.679993</ele>
<time>2022-01-17T09:59:44.084Z</time>
</trkpt>
<trkpt lat="31.8172400" lon="34.9900400">
<ele>297.679993</ele>
<time>2022-01-17T09:59:44.084Z</time>
</trkpt>
<trkpt lat="31.8172100" lon="34.9900500">
<ele>297.210022</ele>
<time>2022-01-17T09:59:44.084Z</time>
</trkpt>
<trkpt lat="31.8170400" lon="34.9900900">
<ele>292.739990</ele>
<time>2022-01-17T09:59:44.084Z</time>
</trkpt>
<trkpt lat="31.8166800" lon="34.9901800">
<ele>285.679993</ele>
<time>2022-01-17T09:59:44.084Z</time>
</trkpt>
<trkpt lat="31.8159800" lon="34.9903100">
<ele>296.589996</ele>
<time>2022-01-17T09:59:44.084Z</time>
</trkpt>
<trkpt lat="31.8157500" lon="34.9903700">
<ele>298.570007</ele>
<time>2022-01-17T09:59:44.084Z</time>
</trkpt>
<trkpt lat="31.8155400" lon="34.9903200">
<ele>298.850006</ele>
<time>2022-01-17T09:59:44.084Z</time>
</trkpt>
<trkpt lat="31.8152100" lon="34.9902100">
<ele>305.049988</ele>
<time>2022-01-17T09:59:44.085Z</time>
</trkpt>
<trkpt lat="31.8148500" lon="34.9900000">
<ele>312.459991</ele>
<time>2022-01-17T09:59:44.085Z</time>
</trkpt>
<trkpt lat="31.8142200" lon="34.9896500">
<ele>319.030029</ele>
<time>2022-01-17T09:59:44.085Z</time>
</trkpt>
<trkpt lat="31.8135700" lon="34.9894000">
<ele>327.049988</ele>
<time>2022-01-17T09:59:44.085Z</time>
</trkpt>
<trkpt lat="31.8135700" lon="34.9894000">
<ele>327.049988</ele>
<time>2022-01-17T09:59:44.085Z</time>
</trkpt>
<trkpt lat="31.8135700" lon="34.9894000">
<ele>327.049988</ele>
<time>2022-01-17T09:59:44.085Z</time>
</trkpt>
<trkpt lat="31.8134300" lon="34.9893500">
<ele>328.559998</ele>
<time>2022-01-17T09:59:44.085Z</time>
</trkpt>
<trkpt lat="31.8126000" lon="34.9892000">
<ele>316.029999</ele>
<time>2022-01-17T09:59:44.085Z</time>
</trkpt>
<trkpt lat="31.8121700" lon="34.9891300">
<ele>307.600006</ele>
<time>2022-01-17T09:59:44.085Z</time>
</trkpt>
<trkpt lat="31.8117500" lon="34.9892600">
<ele>309.240021</ele>
<time>2022-01-17T09:59:44.085Z</time>
</trkpt>
<trkpt lat="31.8116000" lon="34.9893200">
<ele>309.549988</ele>
<time>2022-01-17T09:59:44.085Z</time>
</trkpt>
<trkpt lat="31.8112900" lon="34.9894900">
<ele>310.100006</ele>
<time>2022-01-17T09:59:44.085Z</time>
</trkpt>
<trkpt lat="31.8111300" lon="34.9895900">
<ele>309.809998</ele>
<time>2022-01-17T09:59:44.085Z</time>
</trkpt>
<trkpt lat="31.8107900" lon="34.9895400">
<ele>305.380005</ele>
<time>2022-01-17T09:59:44.085Z</time>
</trkpt>
<trkpt lat="31.8106100" lon="34.9895400">
<ele>306.940002</ele>
<time>2022-01-17T09:59:44.085Z</time>
</trkpt>
<trkpt lat="31.8104200" lon="34.9895800">
<ele>310.649994</ele>
<time>2022-01-17T09:59:44.085Z</time>
</trkpt>
<trkpt lat="31.8102300" lon="34.9896700">
<ele>313.729980</ele>
<time>2022-01-17T09:59:44.086Z</time>
</trkpt>
<trkpt lat="31.8094700" lon="34.9902500">
<ele>309.630005</ele>
<time>2022-01-17T09:59:44.086Z</time>
</trkpt>
<trkpt lat="31.8080800" lon="34.9914200">
<ele>311.570007</ele>
<time>2022-01-17T09:59:44.086Z</time>
</trkpt>
<trkpt lat="31.8078800" lon="34.9915300">
<ele>313.220001</ele>
<time>2022-01-17T09:59:44.086Z</time>
</trkpt>
<trkpt lat="31.8077000" lon="34.9914600">
<ele>314.820007</ele>
<time>2022-01-17T09:59:44.086Z</time>
</trkpt>
<trkpt lat="31.8075500" lon="34.9912900">
<ele>319.729980</ele>
<time>2022-01-17T09:59:44.086Z</time>
</trkpt>
<trkpt lat="31.8075400" lon="34.9912700">
<ele>320.050018</ele>
<time>2022-01-17T09:59:44.086Z</time>
</trkpt>
<trkpt lat="31.8075400" lon="34.9912700">
<ele>320.050018</ele>
<time>2022-01-17T09:59:44.086Z</time>
</trkpt>
<trkpt lat="31.8075400" lon="34.9912700">
<ele>320.050018</ele>
<time>2022-01-17T09:59:44.086Z</time>
</trkpt>
<trkpt lat="31.8073300" lon="34.9909200">
<ele>325.130005</ele>
<time>2022-01-17T09:59:44.086Z</time>
</trkpt>
<trkpt lat="31.8071900" lon="34.9907200">
<ele>326.529999</ele>
<time>2022-01-17T09:59:44.086Z</time>
</trkpt>
<trkpt lat="31.8069400" lon="34.9905300">
<ele>327.890015</ele>
<time>2022-01-17T09:59:44.086Z</time>
</trkpt>
<trkpt lat="31.8067800" lon="34.9904600">
<ele>326.659973</ele>
<time>2022-01-17T09:59:44.086Z</time>
</trkpt>
<trkpt lat="31.8066700" lon="34.9904500">
<ele>325.880005</ele>
<time>2022-01-17T09:59:44.086Z</time>
</trkpt>
<trkpt lat="31.8063400" lon="34.9904700">
<ele>320.079987</ele>
<time>2022-01-17T09:59:44.086Z</time>
</trkpt>
<trkpt lat="31.8060800" lon="34.9905000">
<ele>321.290009</ele>
<time>2022-01-17T09:59:44.086Z</time>
</trkpt>
<trkpt lat="31.8055600" lon="34.9906800">
<ele>317.549988</ele>
<time>2022-01-17T09:59:44.086Z</time>
</trkpt>
<trkpt lat="31.8043700" lon="34.9914900">
<ele>326.890015</ele>
<time>2022-01-17T09:59:44.086Z</time>
</trkpt>
<trkpt lat="31.8041800" lon="34.9915600">
<ele>329.970001</ele>
<time>2022-01-17T09:59:44.086Z</time>
</trkpt>
<trkpt lat="31.8039100" lon="34.9915300">
<ele>335.070007</ele>
<time>2022-01-17T09:59:44.086Z</time>
</trkpt>
<trkpt lat="31.8037700" lon="34.9915600">
<ele>336.279999</ele>
<time>2022-01-17T09:59:44.086Z</time>
</trkpt>
<trkpt lat="31.8037100" lon="34.9916300">
<ele>337.250000</ele>
<time>2022-01-17T09:59:44.086Z</time>
</trkpt>
<trkpt lat="31.8035900" lon="34.9918200">
<ele>340.010010</ele>
<time>2022-01-17T09:59:44.086Z</time>
</trkpt>
<trkpt lat="31.8035400" lon="34.9919200">
<ele>340.900024</ele>
<time>2022-01-17T09:59:44.087Z</time>
</trkpt>
<trkpt lat="31.8034300" lon="34.9921500">
<ele>342.779999</ele>
<time>2022-01-17T09:59:44.087Z</time>
</trkpt>
<trkpt lat="31.8033200" lon="34.9923600">
<ele>343.890015</ele>
<time>2022-01-17T09:59:44.087Z</time>
</trkpt>
<trkpt lat="31.8032000" lon="34.9925700">
<ele>344.649994</ele>
<time>2022-01-17T09:59:44.087Z</time>
</trkpt>
<trkpt lat="31.8031100" lon="34.9927000">
<ele>342.020020</ele>
<time>2022-01-17T09:59:44.087Z</time>
</trkpt>
<trkpt lat="31.8029500" lon="34.9928700">
<ele>336.979980</ele>
<time>2022-01-17T09:59:44.087Z</time>
</trkpt>
<trkpt lat="31.8028300" lon="34.9929500">
<ele>334.270020</ele>
<time>2022-01-17T09:59:44.087Z</time>
</trkpt>
<trkpt lat="31.8028300" lon="34.9929500">
<ele>334.270020</ele>
<time>2022-01-17T09:59:44.087Z</time>
</trkpt>
<trkpt lat="31.8028300" lon="34.9929500">
<ele>334.270020</ele>
<time>2022-01-17T09:59:44.087Z</time>
</trkpt>
<trkpt lat="31.8026900" lon="34.9930500">
<ele>332.380005</ele>
<time>2022-01-17T09:59:44.087Z</time>
</trkpt>
<trkpt lat="31.8022000" lon="34.9932800">
<ele>334.650024</ele>
<time>2022-01-17T09:59:44.087Z</time>
</trkpt>
<trkpt lat="31.8021500" lon="34.9932900">
<ele>335.269989</ele>
<time>2022-01-17T09:59:44.087Z</time>
</trkpt>
<trkpt lat="31.8020000" lon="34.9933700">
<ele>338.139984</ele>
<time>2022-01-17T09:59:44.087Z</time>
</trkpt>
<trkpt lat="31.8019100" lon="34.9933900">
<ele>339.470001</ele>
<time>2022-01-17T09:59:44.087Z</time>
</trkpt>
<trkpt lat="31.8017900" lon="34.9934700">
<ele>341.250031</ele>
<time>2022-01-17T09:59:44.087Z</time>
</trkpt>
<trkpt lat="31.8016600" lon="34.9935800">
<ele>341.869995</ele>
<time>2022-01-17T09:59:44.087Z</time>
</trkpt>
<trkpt lat="31.8015700" lon="34.9937100">
<ele>342.940002</ele>
<time>2022-01-17T09:59:44.087Z</time>
</trkpt>
<trkpt lat="31.8014300" lon="34.9939300">
<ele>344.249969</ele>
<time>2022-01-17T09:59:44.087Z</time>
</trkpt>
<trkpt lat="31.8012400" lon="34.9942900">
<ele>342.350006</ele>
<time>2022-01-17T09:59:44.087Z</time>
</trkpt>
<trkpt lat="31.8011900" lon="34.9943800">
<ele>341.750000</ele>
<time>2022-01-17T09:59:44.087Z</time>
</trkpt>
<trkpt lat="31.8011400" lon="34.9944300">
<ele>341.269989</ele>
<time>2022-01-17T09:59:44.087Z</time>
</trkpt>
<trkpt lat="31.8011000" lon="34.9944800">
<ele>341.059998</ele>
<time>2022-01-17T09:59:44.087Z</time>
</trkpt>
<trkpt lat="31.8009800" lon="34.9945800">
<ele>339.849976</ele>
<time>2022-01-17T09:59:44.087Z</time>
</trkpt>
<trkpt lat="31.8008200" lon="34.9946600">
<ele>338.230011</ele>
<time>2022-01-17T09:59:44.088Z</time>
</trkpt>
<trkpt lat="31.8006900" lon="34.9946800">
<ele>337.510010</ele>
<time>2022-01-17T09:59:44.088Z</time>
</trkpt>
<trkpt lat="31.8005700" lon="34.9946800">
<ele>336.649994</ele>
<time>2022-01-17T09:59:44.088Z</time>
</trkpt>
<trkpt lat="31.8002500" lon="34.9946200">
<ele>338.580017</ele>
<time>2022-01-17T09:59:44.088Z</time>
</trkpt>
<trkpt lat="31.8001300" lon="34.9946200">
<ele>338.380005</ele>
<time>2022-01-17T09:59:44.088Z</time>
</trkpt>
<trkpt lat="31.7999900" lon="34.9946400">
<ele>338.469971</ele>
<time>2022-01-17T09:59:44.088Z</time>
</trkpt>
<trkpt lat="31.7997600" lon="34.9947700">
<ele>339.679993</ele>
<time>2022-01-17T09:59:44.088Z</time>
</trkpt>
<trkpt lat="31.7995800" lon="34.9949700">
<ele>342.989990</ele>
<time>2022-01-17T09:59:44.088Z</time>
</trkpt>
<trkpt lat="31.7993200" lon="34.9953800">
<ele>345.759979</ele>
<time>2022-01-17T09:59:44.088Z</time>
</trkpt>
<trkpt lat="31.7991500" lon="34.9956000">
<ele>347.049988</ele>
<time>2022-01-17T09:59:44.088Z</time>
</trkpt>
<trkpt lat="31.7988000" lon="34.9959900">
<ele>347.150024</ele>
<time>2022-01-17T09:59:44.088Z</time>
</trkpt>
<trkpt lat="31.7984900" lon="34.9962800">
<ele>347.920013</ele>
<time>2022-01-17T09:59:44.088Z</time>
</trkpt>
<trkpt lat="31.7982500" lon="34.9965900">
<ele>350.490021</ele>
<time>2022-01-17T09:59:44.088Z</time>
</trkpt>
<trkpt lat="31.7980900" lon="34.9967800">
<ele>350.610016</ele>
<time>2022-01-17T09:59:44.088Z</time>
</trkpt>
<trkpt lat="31.7979800" lon="34.9969100">
<ele>350.769989</ele>
<time>2022-01-17T09:59:44.088Z</time>
</trkpt>
<trkpt lat="31.7977400" lon="34.9971300">
<ele>353.799988</ele>
<time>2022-01-17T09:59:44.088Z</time>
</trkpt>
<trkpt lat="31.7975900" lon="34.9972400">
<ele>352.580017</ele>
<time>2022-01-17T09:59:44.088Z</time>
</trkpt>
<trkpt lat="31.7974600" lon="34.9973100">
<ele>351.050018</ele>
<time>2022-01-17T09:59:44.089Z</time>
</trkpt>
<trkpt lat="31.7973700" lon="34.9973400">
<ele>351.199982</ele>
<time>2022-01-17T09:59:44.089Z</time>
</trkpt>
<trkpt lat="31.7970800" lon="34.9973900">
<ele>354.369995</ele>
<time>2022-01-17T09:59:44.089Z</time>
</trkpt>
<trkpt lat="31.7969400" lon="34.9974300">
<ele>357.080017</ele>
<time>2022-01-17T09:59:44.089Z</time>
</trkpt>
<trkpt lat="31.7967600" lon="34.9974600">
<ele>360.320007</ele>
<time>2022-01-17T09:59:44.089Z</time>
</trkpt>
<trkpt lat="31.7965100" lon="34.9974500">
<ele>365.489990</ele>
<time>2022-01-17T09:59:44.089Z</time>
</trkpt>
<trkpt lat="31.7962700" lon="34.9973600">
<ele>370.640015</ele>
<time>2022-01-17T09:59:44.089Z</time>
</trkpt>
<trkpt lat="31.7960300" lon="34.9972300">
<ele>374.850006</ele>
<time>2022-01-17T09:59:44.089Z</time>
</trkpt>
<trkpt lat="31.7960300" lon="34.9972300">
<ele>374.850006</ele>
<time>2022-01-17T09:59:44.089Z</time>
</trkpt>
<trkpt lat="31.7960300" lon="34.9972300">
<ele>374.850006</ele>
<time>2022-01-17T09:59:44.089Z</time>
</trkpt>
<trkpt lat="31.7958500" lon="34.9971300">
<ele>377.819977</ele>
<time>2022-01-17T09:59:44.089Z</time>
</trkpt>
<trkpt lat="31.7956000" lon="34.9969600">
<ele>381.610016</ele>
<time>2022-01-17T09:59:44.089Z</time>
</trkpt>
<trkpt lat="31.7955200" lon="34.9968900">
<ele>381.989990</ele>
<time>2022-01-17T09:59:44.089Z</time>
</trkpt>
<trkpt lat="31.7951600" lon="34.9966800">
<ele>380.739990</ele>
<time>2022-01-17T09:59:44.089Z</time>
</trkpt>
<trkpt lat="31.7949700" lon="34.9966000">
<ele>378.050018</ele>
<time>2022-01-17T09:59:44.089Z</time>
</trkpt>
<trkpt lat="31.7949000" lon="34.9965900">
<ele>377.660004</ele>
<time>2022-01-17T09:59:44.089Z</time>
</trkpt>
<trkpt lat="31.7948100" lon="34.9966000">
<ele>377.040009</ele>
<time>2022-01-17T09:59:44.089Z</time>
</trkpt>
<trkpt lat="31.7945900" lon="34.9967000">
<ele>374.869995</ele>
<time>2022-01-17T09:59:44.089Z</time>
</trkpt>
<trkpt lat="31.7942900" lon="34.9968900">
<ele>375.190002</ele>
<time>2022-01-17T09:59:44.089Z</time>
</trkpt>
<trkpt lat="31.7940200" lon="34.9970300">
<ele>376.470001</ele>
<time>2022-01-17T09:59:44.089Z</time>
</trkpt>
<trkpt lat="31.7937300" lon="34.9971900">
<ele>375.350006</ele>
<time>2022-01-17T09:59:44.089Z</time>
</trkpt>
<trkpt lat="31.7930900" lon="34.9974500">
<ele>371.929993</ele>
<time>2022-01-17T09:59:44.089Z</time>
</trkpt>
<trkpt lat="31.7928400" lon="34.9976100">
<ele>367.899994</ele>
<time>2022-01-17T09:59:44.089Z</time>
</trkpt>
<trkpt lat="31.7925700" lon="34.9977300">
<ele>367.239990</ele>
<time>2022-01-17T09:59:44.089Z</time>
</trkpt>
<trkpt lat="31.7924400" lon="34.9977500">
<ele>367.190002</ele>
<time>2022-01-17T09:59:44.089Z</time>
</trkpt>
<trkpt lat="31.7921700" lon="34.9977500">
<ele>368.430023</ele>
<time>2022-01-17T09:59:44.089Z</time>
</trkpt>
<trkpt lat="31.7919600" lon="34.9976700">
<ele>366.869995</ele>
<time>2022-01-17T09:59:44.089Z</time>
</trkpt>
<trkpt lat="31.7918100" lon="34.9977700">
<ele>367.899994</ele>
<time>2022-01-17T09:59:44.089Z</time>
</trkpt>
<trkpt lat="31.7916300" lon="34.9979500">
<ele>372.600006</ele>
<time>2022-01-17T09:59:44.089Z</time>
</trkpt>
<trkpt lat="31.7915400" lon="34.9980200">
<ele>375.020020</ele>
<time>2022-01-17T09:59:44.089Z</time>
</trkpt>
<trkpt lat="31.7914500" lon="34.9980500">
<ele>376.420013</ele>
<time>2022-01-17T09:59:44.089Z</time>
</trkpt>
<trkpt lat="31.7913600" lon="34.9980700">
<ele>377.100006</ele>
<time>2022-01-17T09:59:44.089Z</time>
</trkpt>
<trkpt lat="31.7910500" lon="34.9980100">
<ele>374.229980</ele>
<time>2022-01-17T09:59:44.090Z</time>
</trkpt>
<trkpt lat="31.7909600" lon="34.9980400">
<ele>374.320007</ele>
<time>2022-01-17T09:59:44.090Z</time>
</trkpt>
<trkpt lat="31.7908900" lon="34.9981000">
<ele>375.000000</ele>
<time>2022-01-17T09:59:44.090Z</time>
</trkpt>
<trkpt lat="31.7908600" lon="34.9981500">
<ele>375.799988</ele>
<time>2022-01-17T09:59:44.090Z</time>
</trkpt>
<trkpt lat="31.7908600" lon="34.9983200">
<ele>378.859985</ele>
<time>2022-01-17T09:59:44.090Z</time>
</trkpt>
<trkpt lat="31.7909600" lon="34.9985200">
<ele>382.819977</ele>
<time>2022-01-17T09:59:44.090Z</time>
</trkpt>
<trkpt lat="31.7910500" lon="34.9986300">
<ele>384.959991</ele>
<time>2022-01-17T09:59:44.090Z</time>
</trkpt>
<trkpt lat="31.7912100" lon="34.9987600">
<ele>387.310028</ele>
<time>2022-01-17T09:59:44.090Z</time>
</trkpt>
<trkpt lat="31.7914400" lon="34.9990000">
<ele>386.800018</ele>
<time>2022-01-17T09:59:44.090Z</time>
</trkpt>
<trkpt lat="31.7917600" lon="34.9992600">
<ele>377.309998</ele>
<time>2022-01-17T09:59:44.090Z</time>
</trkpt>
<trkpt lat="31.7919900" lon="34.9995000">
<ele>374.070007</ele>
<time>2022-01-17T09:59:44.090Z</time>
</trkpt>
<trkpt lat="31.7921000" lon="34.9995700">
<ele>374.149994</ele>
<time>2022-01-17T09:59:44.090Z</time>
</trkpt>
<trkpt lat="31.7921900" lon="34.9996000">
<ele>374.170013</ele>
<time>2022-01-17T09:59:44.090Z</time>
</trkpt>
<trkpt lat="31.7922800" lon="34.9996600">
<ele>374.320007</ele>
<time>2022-01-17T09:59:44.090Z</time>
</trkpt>
<trkpt lat="31.7923300" lon="34.9997500">
<ele>374.190002</ele>
<time>2022-01-17T09:59:44.091Z</time>
</trkpt>
<trkpt lat="31.7923800" lon="34.9999900">
<ele>373.319977</ele>
<time>2022-01-17T09:59:44.091Z</time>
</trkpt>
<trkpt lat="31.7923900" lon="35.0000200">
<ele>372.960022</ele>
<time>2022-01-17T09:59:44.091Z</time>
</trkpt>
<trkpt lat="31.7923900" lon="35.0000200">
<ele>372.960022</ele>
<time>2022-01-17T09:59:44.091Z</time>
</trkpt>
<trkpt lat="31.7923900" lon="35.0000200">
<ele>372.960022</ele>
<time>2022-01-17T09:59:44.091Z</time>
</trkpt>
<trkpt lat="31.7924300" lon="35.0001300">
<ele>371.470001</ele>
<time>2022-01-17T09:59:44.091Z</time>
</trkpt>
<trkpt lat="31.7924800" lon="35.0002200">
<ele>370.459991</ele>
<time>2022-01-17T09:59:44.091Z</time>
</trkpt>
<trkpt lat="31.7925600" lon="35.0003000">
<ele>369.149994</ele>
<time>2022-01-17T09:59:44.091Z</time>
</trkpt>
<trkpt lat="31.7926800" lon="35.0003800">
<ele>367.649994</ele>
<time>2022-01-17T09:59:44.091Z</time>
</trkpt>
<trkpt lat="31.7930700" lon="35.0002100">
<ele>362.369995</ele>
<time>2022-01-17T09:59:44.091Z</time>
</trkpt>
<trkpt lat="31.7938900" lon="35.0002200">
<ele>353.610016</ele>
<time>2022-01-17T09:59:44.091Z</time>
</trkpt>
<trkpt lat="31.7941200" lon="35.0003100">
<ele>350.639984</ele>
<time>2022-01-17T09:59:44.091Z</time>
</trkpt>
<trkpt lat="31.7943300" lon="35.0002500">
<ele>347.960022</ele>
<time>2022-01-17T09:59:44.091Z</time>
</trkpt>
<trkpt lat="31.7945600" lon="35.0001400">
<ele>344.179993</ele>
<time>2022-01-17T09:59:44.091Z</time>
</trkpt>
<trkpt lat="31.7951100" lon="34.9997600">
<ele>343.520020</ele>
<time>2022-01-17T09:59:44.092Z</time>
</trkpt>
<trkpt lat="31.7953000" lon="34.9996600">
<ele>342.929993</ele>
<time>2022-01-17T09:59:44.092Z</time>
</trkpt>
<trkpt lat="31.7955700" lon="34.9994700">
<ele>339.360016</ele>
<time>2022-01-17T09:59:44.092Z</time>
</trkpt>
<trkpt lat="31.7957100" lon="34.9994000">
<ele>339.110016</ele>
<time>2022-01-17T09:59:44.092Z</time>
</trkpt>
<trkpt lat="31.7961100" lon="34.9993200">
<ele>343.869995</ele>
<time>2022-01-17T09:59:44.092Z</time>
</trkpt>
<trkpt lat="31.7964700" lon="34.9991600">
<ele>348.850006</ele>
<time>2022-01-17T09:59:44.092Z</time>
</trkpt>
<trkpt lat="31.7965600" lon="34.9991500">
<ele>347.559998</ele>
<time>2022-01-17T09:59:44.092Z</time>
</trkpt>
<trkpt lat="31.7968300" lon="34.9991600">
<ele>343.090027</ele>
<time>2022-01-17T09:59:44.092Z</time>
</trkpt>
<trkpt lat="31.7969600" lon="34.9991200">
<ele>341.489990</ele>
<time>2022-01-17T09:59:44.092Z</time>
</trkpt>
<trkpt lat="31.7977100" lon="34.9988200">
<ele>331.889984</ele>
<time>2022-01-17T09:59:44.092Z</time>
</trkpt>
<trkpt lat="31.7979700" lon="34.9987400">
<ele>322.769989</ele>
<time>2022-01-17T09:59:44.092Z</time>
</trkpt>
<trkpt lat="31.7985600" lon="34.9984400">
<ele>313.080017</ele>
<time>2022-01-17T09:59:44.092Z</time>
</trkpt>
<trkpt lat="31.7989000" lon="34.9983100">
<ele>309.769989</ele>
<time>2022-01-17T09:59:44.092Z</time>
</trkpt>
<trkpt lat="31.7996700" lon="34.9981600">
<ele>321.380005</ele>
<time>2022-01-17T09:59:44.092Z</time>
</trkpt>
<trkpt lat="31.8002000" lon="34.9980300">
<ele>321.130005</ele>
<time>2022-01-17T09:59:44.092Z</time>
</trkpt>
<trkpt lat="31.8004100" lon="34.9979500">
<ele>320.390015</ele>
<time>2022-01-17T09:59:44.092Z</time>
</trkpt>
<trkpt lat="31.8012600" lon="34.9974700">
<ele>312.449982</ele>
<time>2022-01-17T09:59:44.092Z</time>
</trkpt>
<trkpt lat="31.8013900" lon="34.9973900">
<ele>313.019989</ele>
<time>2022-01-17T09:59:44.092Z</time>
</trkpt>
<trkpt lat="31.8016100" lon="34.9971700">
<ele>305.149994</ele>
<time>2022-01-17T09:59:44.092Z</time>
</trkpt>
<trkpt lat="31.8017900" lon="34.9970500">
<ele>302.549988</ele>
<time>2022-01-17T09:59:44.092Z</time>
</trkpt>
<trkpt lat="31.8020900" lon="34.9968500">
<ele>299.200012</ele>
<time>2022-01-17T09:59:44.092Z</time>
</trkpt>
<trkpt lat="31.8022400" lon="34.9967700">
<ele>300.109985</ele>
<time>2022-01-17T09:59:44.092Z</time>
</trkpt>
<trkpt lat="31.8024900" lon="34.9966600">
<ele>298.250000</ele>
<time>2022-01-17T09:59:44.093Z</time>
</trkpt>
<trkpt lat="31.8026900" lon="34.9966000">
<ele>295.860016</ele>
<time>2022-01-17T09:59:44.093Z</time>
</trkpt>
<trkpt lat="31.8028500" lon="34.9965900">
<ele>293.690002</ele>
<time>2022-01-17T09:59:44.093Z</time>
</trkpt>
<trkpt lat="31.8031700" lon="34.9966400">
<ele>290.179993</ele>
<time>2022-01-17T09:59:44.093Z</time>
</trkpt>
<trkpt lat="31.8032500" lon="34.9966300">
<ele>288.880005</ele>
<time>2022-01-17T09:59:44.093Z</time>
</trkpt>
<trkpt lat="31.8033400" lon="34.9966200">
<ele>287.489990</ele>
<time>2022-01-17T09:59:44.093Z</time>
</trkpt>
<trkpt lat="31.8036700" lon="34.9965300">
<ele>285.429993</ele>
<time>2022-01-17T09:59:44.093Z</time>
</trkpt>
<trkpt lat="31.8039800" lon="34.9964000">
<ele>286.380005</ele>
<time>2022-01-17T09:59:44.093Z</time>
</trkpt>
<trkpt lat="31.8041300" lon="34.9963800">
<ele>290.299988</ele>
<time>2022-01-17T09:59:44.093Z</time>
</trkpt>
<trkpt lat="31.8045800" lon="34.9963800">
<ele>293.700012</ele>
<time>2022-01-17T09:59:44.093Z</time>
</trkpt>
<trkpt lat="31.8046200" lon="34.9963800">
<ele>292.989990</ele>
<time>2022-01-17T09:59:44.093Z</time>
</trkpt>
<trkpt lat="31.8046200" lon="34.9963800">
<ele>292.989990</ele>
<time>2022-01-17T09:59:44.093Z</time>
</trkpt>
<trkpt lat="31.8046200" lon="34.9963800">
<ele>292.989990</ele>
<time>2022-01-17T09:59:44.093Z</time>
</trkpt>
<trkpt lat="31.8047400" lon="34.9963600">
<ele>291.390015</ele>
<time>2022-01-17T09:59:44.093Z</time>
</trkpt>
<trkpt lat="31.8049700" lon="34.9963000">
<ele>290.529999</ele>
<time>2022-01-17T09:59:44.093Z</time>
</trkpt>
<trkpt lat="31.8051600" lon="34.9962200">
<ele>289.350006</ele>
<time>2022-01-17T09:59:44.093Z</time>
</trkpt>
<trkpt lat="31.8052800" lon="34.9961900">
<ele>288.130005</ele>
<time>2022-01-17T09:59:44.093Z</time>
</trkpt>
<trkpt lat="31.8055000" lon="34.9962100">
<ele>285.820007</ele>
<time>2022-01-17T09:59:44.094Z</time>
</trkpt>
<trkpt lat="31.8058100" lon="34.9962100">
<ele>284.170013</ele>
<time>2022-01-17T09:59:44.094Z</time>
</trkpt>
<trkpt lat="31.8059200" lon="34.9961800">
<ele>284.049988</ele>
<time>2022-01-17T09:59:44.094Z</time>
</trkpt>
<trkpt lat="31.8059800" lon="34.9961600">
<ele>283.899994</ele>
<time>2022-01-17T09:59:44.094Z</time>
</trkpt>
<trkpt lat="31.8060700" lon="34.9961200">
<ele>283.209991</ele>
<time>2022-01-17T09:59:44.094Z</time>
</trkpt>
<trkpt lat="31.8065700" lon="34.9958000">
<ele>276.190002</ele>
<time>2022-01-17T09:59:44.094Z</time>
</trkpt>
<trkpt lat="31.8072100" lon="34.9952900">
<ele>272.089996</ele>
<time>2022-01-17T09:59:44.094Z</time>
</trkpt>
<trkpt lat="31.8074700" lon="34.9948900">
<ele>269.649994</ele>
<time>2022-01-17T09:59:44.094Z</time>
</trkpt>
<trkpt lat="31.8076600" lon="34.9946400">
<ele>269.279999</ele>
<time>2022-01-17T09:59:44.094Z</time>
</trkpt>
<trkpt lat="31.8078900" lon="34.9944700">
<ele>272.250000</ele>
<time>2022-01-17T09:59:44.094Z</time>
</trkpt>
<trkpt lat="31.8079200" lon="34.9944000">
<ele>273.410004</ele>
<time>2022-01-17T09:59:44.094Z</time>
</trkpt>
<trkpt lat="31.8079300" lon="34.9943100">
<ele>274.260010</ele>
<time>2022-01-17T09:59:44.094Z</time>
</trkpt>
<trkpt lat="31.8081500" lon="34.9944800">
<ele>277.640015</ele>
<time>2022-01-17T09:59:44.094Z</time>
</trkpt>
<trkpt lat="31.8087700" lon="34.9949700">
<ele>282.730011</ele>
<time>2022-01-17T09:59:44.094Z</time>
</trkpt>
<trkpt lat="31.8089100" lon="34.9950200">
<ele>280.989990</ele>
<time>2022-01-17T09:59:44.095Z</time>
</trkpt>
<trkpt lat="31.8089800" lon="34.9950300">
<ele>280.380005</ele>
<time>2022-01-17T09:59:44.095Z</time>
</trkpt>
<trkpt lat="31.8093100" lon="34.9950300">
<ele>276.089996</ele>
<time>2022-01-17T09:59:44.095Z</time>
</trkpt>
<trkpt lat="31.8093100" lon="34.9950300">
<ele>276.089996</ele>
<time>2022-01-17T09:59:44.095Z</time>
</trkpt>
<trkpt lat="31.8093100" lon="34.9950300">
<ele>276.089996</ele>
<time>2022-01-17T09:59:44.095Z</time>
</trkpt>
<trkpt lat="31.8098800" lon="34.9950400">
<ele>257.670013</ele>
<time>2022-01-17T09:59:44.095Z</time>
</trkpt>
<trkpt lat="31.8102300" lon="34.9950200">
<ele>256.200012</ele>
<time>2022-01-17T09:59:44.095Z</time>
</trkpt>
<trkpt lat="31.8104200" lon="34.9949800">
<ele>257.500000</ele>
<time>2022-01-17T09:59:44.095Z</time>
</trkpt>
<trkpt lat="31.8105100" lon="34.9949200">
<ele>258.269989</ele>
<time>2022-01-17T09:59:44.095Z</time>
</trkpt>
<trkpt lat="31.8105600" lon="34.9948000">
<ele>258.259979</ele>
<time>2022-01-17T09:59:44.095Z</time>
</trkpt>
<trkpt lat="31.8105900" lon="34.9949700">
<ele>258.769989</ele>
<time>2022-01-17T09:59:44.095Z</time>
</trkpt>
<trkpt lat="31.8106600" lon="34.9950500">
<ele>259.279999</ele>
<time>2022-01-17T09:59:44.095Z</time>
</trkpt>
<trkpt lat="31.8107400" lon="34.9950900">
<ele>259.419983</ele>
<time>2022-01-17T09:59:44.095Z</time>
</trkpt>
<trkpt lat="31.8109600" lon="34.9951600">
<ele>260.779999</ele>
<time>2022-01-17T09:59:44.095Z</time>
</trkpt>
<trkpt lat="31.8112100" lon="34.9951900">
<ele>262.300018</ele>
<time>2022-01-17T09:59:44.096Z</time>
</trkpt>
<trkpt lat="31.8114000" lon="34.9952500">
<ele>262.279999</ele>
<time>2022-01-17T09:59:44.096Z</time>
</trkpt>
<trkpt lat="31.8116100" lon="34.9952800">
<ele>258.360016</ele>
<time>2022-01-17T09:59:44.096Z</time>
</trkpt>
<trkpt lat="31.8118000" lon="34.9953500">
<ele>260.209991</ele>
<time>2022-01-17T09:59:44.096Z</time>
</trkpt>
<trkpt lat="31.8120900" lon="34.9955200">
<ele>266.640015</ele>
<time>2022-01-17T09:59:44.096Z</time>
</trkpt>
<trkpt lat="31.8122600" lon="34.9956500">
<ele>271.119995</ele>
<time>2022-01-17T09:59:44.096Z</time>
</trkpt>
<trkpt lat="31.8122600" lon="34.9956500">
<ele>271.119995</ele>
<time>2022-01-17T09:59:44.096Z</time>
</trkpt>
<trkpt lat="31.8122600" lon="34.9956500">
<ele>271.119995</ele>
<time>2022-01-17T09:59:44.096Z</time>
</trkpt>
<trkpt lat="31.8124600" lon="34.9958200">
<ele>276.059998</ele>
<time>2022-01-17T09:59:44.096Z</time>
</trkpt>
<trkpt lat="31.8130000" lon="34.9963400">
<ele>281.980011</ele>
<time>2022-01-17T09:59:44.096Z</time>
</trkpt>
<trkpt lat="31.8131200" lon="34.9964900">
<ele>283.350006</ele>
<time>2022-01-17T09:59:44.096Z</time>
</trkpt>
<trkpt lat="31.8131700" lon="34.9966100">
<ele>284.100006</ele>
<time>2022-01-17T09:59:44.096Z</time>
</trkpt>
<trkpt lat="31.8131800" lon="34.9967800">
<ele>284.369995</ele>
<time>2022-01-17T09:59:44.096Z</time>
</trkpt>
<trkpt lat="31.8131700" lon="34.9968800">
<ele>284.269989</ele>
<time>2022-01-17T09:59:44.096Z</time>
</trkpt>
<trkpt lat="31.8130700" lon="34.9971300">
<ele>286.299988</ele>
<time>2022-01-17T09:59:44.096Z</time>
</trkpt>
<trkpt lat="31.8128900" lon="34.9973700">
<ele>284.079987</ele>
<time>2022-01-17T09:59:44.096Z</time>
</trkpt>
<trkpt lat="31.8127600" lon="34.9975000">
<ele>282.000000</ele>
<time>2022-01-17T09:59:44.097Z</time>
</trkpt>
<trkpt lat="31.8126200" lon="34.9976000">
<ele>281.479980</ele>
<time>2022-01-17T09:59:44.097Z</time>
</trkpt>
<trkpt lat="31.8123700" lon="34.9977500">
<ele>282.600006</ele>
<time>2022-01-17T09:59:44.097Z</time>
</trkpt>
<trkpt lat="31.8122300" lon="34.9978000">
<ele>284.000000</ele>
<time>2022-01-17T09:59:44.097Z</time>
</trkpt>
<trkpt lat="31.8120800" lon="34.9978800">
<ele>287.199982</ele>
<time>2022-01-17T09:59:44.097Z</time>
</trkpt>
<trkpt lat="31.8119800" lon="34.9979600">
<ele>288.470001</ele>
<time>2022-01-17T09:59:44.097Z</time>
</trkpt>
<trkpt lat="31.8116000" lon="34.9981500">
<ele>291.049988</ele>
<time>2022-01-17T09:59:44.097Z</time>
</trkpt>
<trkpt lat="31.8115800" lon="34.9981500">
<ele>291.179993</ele>
<time>2022-01-17T09:59:44.097Z</time>
</trkpt>
<trkpt lat="31.8115800" lon="34.9981500">
<ele>291.179993</ele>
<time>2022-01-17T09:59:44.097Z</time>
</trkpt>
<trkpt lat="31.8115400" lon="34.9981600">
<ele>291.410004</ele>
<time>2022-01-17T09:59:44.097Z</time>
</trkpt>
<trkpt lat="31.8113100" lon="34.9982800">
<ele>294.609985</ele>
<time>2022-01-17T09:59:44.097Z</time>
</trkpt>
<trkpt lat="31.8111800" lon="34.9983300">
<ele>295.019989</ele>
<time>2022-01-17T09:59:44.097Z</time>
</trkpt>
<trkpt lat="31.8103700" lon="34.9985000">
<ele>301.529999</ele>
<time>2022-01-17T09:59:44.097Z</time>
</trkpt>
<trkpt lat="31.8103000" lon="34.9985300">
<ele>301.320007</ele>
<time>2022-01-17T09:59:44.097Z</time>
</trkpt>
<trkpt lat="31.8103000" lon="34.9985200">
<ele>301.350006</ele>
<time>2022-01-17T09:59:44.097Z</time>
</trkpt>
<trkpt lat="31.8103000" lon="34.9985200">
<ele>301.350006</ele>
<time>2022-01-17T09:59:44.097Z</time>
</trkpt>
<trkpt lat="31.8101000" lon="34.9985800">
<ele>303.809998</ele>
<time>2022-01-17T09:59:44.097Z</time>
</trkpt>
<trkpt lat="31.8099300" lon="34.9986400">
<ele>306.180023</ele>
<time>2022-01-17T09:59:44.097Z</time>
</trkpt>
<trkpt lat="31.8096800" lon="34.9987600">
<ele>308.660004</ele>
<time>2022-01-17T09:59:44.097Z</time>
</trkpt>
<trkpt lat="31.8095500" lon="34.9987600">
<ele>310.250000</ele>
<time>2022-01-17T09:59:44.097Z</time>
</trkpt>
<trkpt lat="31.8090800" lon="34.9986300">
<ele>318.359985</ele>
<time>2022-01-17T09:59:44.097Z</time>
</trkpt>
<trkpt lat="31.8090100" lon="34.9985700">
<ele>319.399994</ele>
<time>2022-01-17T09:59:44.098Z</time>
</trkpt>
<trkpt lat="31.8089900" lon="34.9985500">
<ele>319.760010</ele>
<time>2022-01-17T09:59:44.098Z</time>
</trkpt>
<trkpt lat="31.8089900" lon="34.9985500">
<ele>319.760010</ele>
<time>2022-01-17T09:59:44.098Z</time>
</trkpt>
<trkpt lat="31.8089900" lon="34.9985500">
<ele>319.760010</ele>
<time>2022-01-17T09:59:44.098Z</time>
</trkpt>
<trkpt lat="31.8089600" lon="34.9985100">
<ele>320.339996</ele>
<time>2022-01-17T09:59:44.098Z</time>
</trkpt>
<trkpt lat="31.8089200" lon="34.9984100">
<ele>321.279999</ele>
<time>2022-01-17T09:59:44.098Z</time>
</trkpt>
<trkpt lat="31.8089200" lon="34.9981600">
<ele>320.299988</ele>
<time>2022-01-17T09:59:44.098Z</time>
</trkpt>
<trkpt lat="31.8089400" lon="34.9981000">
<ele>319.580017</ele>
<time>2022-01-17T09:59:44.098Z</time>
</trkpt>
<trkpt lat="31.8089600" lon="34.9978100">
<ele>318.300018</ele>
<time>2022-01-17T09:59:44.098Z</time>
</trkpt>
<trkpt lat="31.8090500" lon="34.9972500">
<ele>313.690002</ele>
<time>2022-01-17T09:59:44.098Z</time>
</trkpt>
<trkpt lat="31.8090100" lon="34.9969800">
<ele>313.619995</ele>
<time>2022-01-17T09:59:44.098Z</time>
</trkpt>
<trkpt lat="31.8089300" lon="34.9968200">
<ele>314.529999</ele>
<time>2022-01-17T09:59:44.098Z</time>
</trkpt>
<trkpt lat="31.8089300" lon="34.9968200">
<ele>314.529999</ele>
<time>2022-01-17T09:59:44.098Z</time>
</trkpt>
<trkpt lat="31.8089300" lon="34.9968200">
<ele>314.529999</ele>
<time>2022-01-17T09:59:44.098Z</time>
</trkpt>
<trkpt lat="31.8089300" lon="34.9968200">
<ele>314.529999</ele>
<time>2022-01-17T09:59:44.098Z</time>
</trkpt>
<trkpt lat="31.8087900" lon="34.9967200">
<ele>314.690002</ele>
<time>2022-01-17T09:59:44.098Z</time>
</trkpt>
<trkpt lat="31.8087100" lon="34.9967000">
<ele>314.059998</ele>
<time>2022-01-17T09:59:44.098Z</time>
</trkpt>
<trkpt lat="31.8084400" lon="34.9967000">
<ele>314.339996</ele>
<time>2022-01-17T09:59:44.098Z</time>
</trkpt>
<trkpt lat="31.8083200" lon="34.9967400">
<ele>314.830017</ele>
<time>2022-01-17T09:59:44.098Z</time>
</trkpt>
<trkpt lat="31.8079000" lon="34.9969700">
<ele>319.940002</ele>
<time>2022-01-17T09:59:44.098Z</time>
</trkpt>
<trkpt lat="31.8076500" lon="34.9972200">
<ele>324.049988</ele>
<time>2022-01-17T09:59:44.098Z</time>
</trkpt>
<trkpt lat="31.8074900" lon="34.9974700">
<ele>326.390015</ele>
<time>2022-01-17T09:59:44.098Z</time>
</trkpt>
<trkpt lat="31.8073400" lon="34.9978500">
<ele>329.779968</ele>
<time>2022-01-17T09:59:44.099Z</time>
</trkpt>
<trkpt lat="31.8073300" lon="34.9988700">
<ele>337.529999</ele>
<time>2022-01-17T09:59:44.099Z</time>
</trkpt>
<trkpt lat="31.8072900" lon="34.9989600">
<ele>336.840027</ele>
<time>2022-01-17T09:59:44.099Z</time>
</trkpt>
<trkpt lat="31.8072100" lon="34.9990800">
<ele>335.170013</ele>
<time>2022-01-17T09:59:44.099Z</time>
</trkpt>
<trkpt lat="31.8071600" lon="34.9991300">
<ele>334.429993</ele>
<time>2022-01-17T09:59:44.099Z</time>
</trkpt>
<trkpt lat="31.8071600" lon="34.9991300">
<ele>334.429993</ele>
<time>2022-01-17T09:59:44.099Z</time>
</trkpt>
<trkpt lat="31.8071600" lon="34.9991300">
<ele>334.429993</ele>
<time>2022-01-17T09:59:44.099Z</time>
</trkpt>
<trkpt lat="31.8071600" lon="34.9991300">
<ele>334.429993</ele>
<time>2022-01-17T09:59:44.099Z</time>
</trkpt>
<trkpt lat="31.8071600" lon="34.9991300">
<ele>334.429993</ele>
<time>2022-01-17T09:59:44.099Z</time>
</trkpt>
<trkpt lat="31.8069700" lon="34.9992500">
<ele>333.179993</ele>
<time>2022-01-17T09:59:44.099Z</time>
</trkpt>
<trkpt lat="31.8066700" lon="34.9992700">
<ele>334.839996</ele>
<time>2022-01-17T09:59:44.099Z</time>
</trkpt>
<trkpt lat="31.8062600" lon="34.9991100">
<ele>338.110016</ele>
<time>2022-01-17T09:59:44.100Z</time>
</trkpt>
<trkpt lat="31.8060200" lon="34.9990300">
<ele>339.339996</ele>
<time>2022-01-17T09:59:44.100Z</time>
</trkpt>
<trkpt lat="31.8059200" lon="34.9989800">
<ele>340.059998</ele>
<time>2022-01-17T09:59:44.100Z</time>
</trkpt>
<trkpt lat="31.8058400" lon="34.9989100">
<ele>340.209991</ele>
<time>2022-01-17T09:59:44.100Z</time>
</trkpt>
<trkpt lat="31.8057900" lon="34.9988400">
<ele>339.849976</ele>
<time>2022-01-17T09:59:44.100Z</time>
</trkpt>
<trkpt lat="31.8056700" lon="34.9985300">
<ele>335.059998</ele>
<time>2022-01-17T09:59:44.100Z</time>
</trkpt>
<trkpt lat="31.8055800" lon="34.9983300">
<ele>332.510010</ele>
<time>2022-01-17T09:59:44.100Z</time>
</trkpt>
<trkpt lat="31.8054700" lon="34.9981600">
<ele>332.349976</ele>
<time>2022-01-17T09:59:44.100Z</time>
</trkpt>
<trkpt lat="31.8053800" lon="34.9980500">
<ele>332.709991</ele>
<time>2022-01-17T09:59:44.100Z</time>
</trkpt>
<trkpt lat="31.8051500" lon="34.9979200">
<ele>334.010010</ele>
<time>2022-01-17T09:59:44.100Z</time>
</trkpt>
<trkpt lat="31.8049600" lon="34.9978800">
<ele>333.729980</ele>
<time>2022-01-17T09:59:44.100Z</time>
</trkpt>
<trkpt lat="31.8047800" lon="34.9978800">
<ele>333.259979</ele>
<time>2022-01-17T09:59:44.100Z</time>
</trkpt>
<trkpt lat="31.8045900" lon="34.9979300">
<ele>331.520020</ele>
<time>2022-01-17T09:59:44.100Z</time>
</trkpt>
<trkpt lat="31.8043700" lon="34.9980400">
<ele>330.020020</ele>
<time>2022-01-17T09:59:44.100Z</time>
</trkpt>
<trkpt lat="31.8042000" lon="34.9981900">
<ele>330.299988</ele>
<time>2022-01-17T09:59:44.100Z</time>
</trkpt>
<trkpt lat="31.8040000" lon="34.9984000">
<ele>330.540009</ele>
<time>2022-01-17T09:59:44.100Z</time>
</trkpt>
<trkpt lat="31.8038000" lon="34.9985800">
<ele>330.519989</ele>
<time>2022-01-17T09:59:44.100Z</time>
</trkpt>
<trkpt lat="31.8036100" lon="34.9987200">
<ele>329.339996</ele>
<time>2022-01-17T09:59:44.100Z</time>
</trkpt>
<trkpt lat="31.8036100" lon="34.9987200">
<ele>329.339996</ele>
<time>2022-01-17T09:59:44.101Z</time>
</trkpt>
<trkpt lat="31.8034100" lon="34.9988700">
<ele>331.140015</ele>
<time>2022-01-17T09:59:44.101Z</time>
</trkpt>
<trkpt lat="31.8028800" lon="34.9993800">
<ele>336.100006</ele>
<time>2022-01-17T09:59:44.101Z</time>
</trkpt>
<trkpt lat="31.8028200" lon="34.9994100">
<ele>335.300018</ele>
<time>2022-01-17T09:59:44.101Z</time>
</trkpt>
<trkpt lat="31.8027500" lon="34.9994500">
<ele>335.569977</ele>
<time>2022-01-17T09:59:44.101Z</time>
</trkpt>
<trkpt lat="31.8026400" lon="34.9994500">
<ele>337.089996</ele>
<time>2022-01-17T09:59:44.101Z</time>
</trkpt>
<trkpt lat="31.8025900" lon="34.9994300">
<ele>337.390015</ele>
<time>2022-01-17T09:59:44.101Z</time>
</trkpt>
<trkpt lat="31.8022800" lon="34.9991800">
<ele>337.170013</ele>
<time>2022-01-17T09:59:44.101Z</time>
</trkpt>
<trkpt lat="31.8022400" lon="34.9991400">
<ele>337.390015</ele>
<time>2022-01-17T09:59:44.101Z</time>
</trkpt>
<trkpt lat="31.8021800" lon="34.9990000">
<ele>337.050018</ele>
<time>2022-01-17T09:59:44.101Z</time>
</trkpt>
<trkpt lat="31.8020800" lon="34.9988900">
<ele>338.080017</ele>
<time>2022-01-17T09:59:44.101Z</time>
</trkpt>
<trkpt lat="31.8018600" lon="34.9988000">
<ele>342.279968</ele>
<time>2022-01-17T09:59:44.101Z</time>
</trkpt>
<trkpt lat="31.8017000" lon="34.9986900">
<ele>345.480011</ele>
<time>2022-01-17T09:59:44.101Z</time>
</trkpt>
<trkpt lat="31.8016200" lon="34.9986500">
<ele>346.450012</ele>
<time>2022-01-17T09:59:44.101Z</time>
</trkpt>
<trkpt lat="31.8015300" lon="34.9986500">
<ele>347.059998</ele>
<time>2022-01-17T09:59:44.101Z</time>
</trkpt>
<trkpt lat="31.8014500" lon="34.9987000">
<ele>347.630005</ele>
<time>2022-01-17T09:59:44.101Z</time>
</trkpt>
<trkpt lat="31.8010700" lon="34.9990500">
<ele>350.419983</ele>
<time>2022-01-17T09:59:44.101Z</time>
</trkpt>
<trkpt lat="31.8009700" lon="34.9991600">
<ele>352.440002</ele>
<time>2022-01-17T09:59:44.101Z</time>
</trkpt>
<trkpt lat="31.8008800" lon="34.9993000">
<ele>355.169983</ele>
<time>2022-01-17T09:59:44.101Z</time>
</trkpt>
<trkpt lat="31.8008600" lon="34.9994000">
<ele>356.830017</ele>
<time>2022-01-17T09:59:44.101Z</time>
</trkpt>
<trkpt lat="31.8008600" lon="34.9995900">
<ele>358.820007</ele>
<time>2022-01-17T09:59:44.101Z</time>
</trkpt>
<trkpt lat="31.8008500" lon="34.9996900">
<ele>359.779999</ele>
<time>2022-01-17T09:59:44.101Z</time>
</trkpt>
<trkpt lat="31.8007900" lon="34.9997700">
<ele>361.059998</ele>
<time>2022-01-17T09:59:44.101Z</time>
</trkpt>
<trkpt lat="31.8007300" lon="34.9998100">
<ele>362.079987</ele>
<time>2022-01-17T09:59:44.101Z</time>
</trkpt>
<trkpt lat="31.8005500" lon="34.9998300">
<ele>364.069977</ele>
<time>2022-01-17T09:59:44.101Z</time>
</trkpt>
<trkpt lat="31.8001900" lon="34.9998300">
<ele>367.119995</ele>
<time>2022-01-17T09:59:44.101Z</time>
</trkpt>
<trkpt lat="31.8000000" lon="34.9997900">
<ele>365.980011</ele>
<time>2022-01-17T09:59:44.101Z</time>
</trkpt>
<trkpt lat="31.7998200" lon="34.9997900">
<ele>364.029999</ele>
<time>2022-01-17T09:59:44.101Z</time>
</trkpt>
<trkpt lat="31.7997100" lon="34.9998700">
<ele>364.000000</ele>
<time>2022-01-17T09:59:44.101Z</time>
</trkpt>
<trkpt lat="31.7996900" lon="34.9999000">
<ele>364.240021</ele>
<time>2022-01-17T09:59:44.101Z</time>
</trkpt>
<trkpt lat="31.7997000" lon="34.9999400">
<ele>364.940002</ele>
<time>2022-01-17T09:59:44.101Z</time>
</trkpt>
<trkpt lat="31.7998700" lon="35.0002100">
<ele>368.349976</ele>
<time>2022-01-17T09:59:44.101Z</time>
</trkpt>
<trkpt lat="31.7999000" lon="35.0002900">
<ele>368.660004</ele>
<time>2022-01-17T09:59:44.101Z</time>
</trkpt>
<trkpt lat="31.7999300" lon="35.0004500">
<ele>365.369995</ele>
<time>2022-01-17T09:59:44.101Z</time>
</trkpt>
<trkpt lat="31.7999300" lon="35.0004500">
<ele>365.369995</ele>
<time>2022-01-17T09:59:44.101Z</time>
</trkpt>
<trkpt lat="31.7999300" lon="35.0004500">
<ele>365.369995</ele>
<time>2022-01-17T09:59:44.101Z</time>
</trkpt>
<trkpt lat="31.7998400" lon="35.0006000">
<ele>361.950012</ele>
<time>2022-01-17T09:59:44.101Z</time>
</trkpt>
<trkpt lat="31.7996500" lon="35.0008100">
<ele>356.779999</ele>
<time>2022-01-17T09:59:44.101Z</time>
</trkpt>
<trkpt lat="31.7994800" lon="35.0009600">
<ele>354.650024</ele>
<time>2022-01-17T09:59:44.101Z</time>
</trkpt>
<trkpt lat="31.7993600" lon="35.0010300">
<ele>356.630005</ele>
<time>2022-01-17T09:59:44.101Z</time>
</trkpt>
<trkpt lat="31.7990800" lon="35.0010800">
<ele>365.829987</ele>
<time>2022-01-17T09:59:44.101Z</time>
</trkpt>
<trkpt lat="31.7989600" lon="35.0011200">
<ele>368.789978</ele>
<time>2022-01-17T09:59:44.101Z</time>
</trkpt>
<trkpt lat="31.7988500" lon="35.0011200">
<ele>370.649994</ele>
<time>2022-01-17T09:59:44.101Z</time>
</trkpt>
<trkpt lat="31.7987400" lon="35.0011000">
<ele>370.539978</ele>
<time>2022-01-17T09:59:44.101Z</time>
</trkpt>
<trkpt lat="31.7985400" lon="35.0009900">
<ele>368.789978</ele>
<time>2022-01-17T09:59:44.101Z</time>
</trkpt>
<trkpt lat="31.7982500" lon="35.0007800">
<ele>361.459991</ele>
<time>2022-01-17T09:59:44.101Z</time>
</trkpt>
<trkpt lat="31.7981600" lon="35.0007500">
<ele>358.840027</ele>
<time>2022-01-17T09:59:44.101Z</time>
</trkpt>
<trkpt lat="31.7981100" lon="35.0007300">
<ele>357.330017</ele>
<time>2022-01-17T09:59:44.101Z</time>
</trkpt>
<trkpt lat="31.7977500" lon="35.0007300">
<ele>346.269989</ele>
<time>2022-01-17T09:59:44.101Z</time>
</trkpt>
<trkpt lat="31.7975000" lon="35.0008000">
<ele>343.000000</ele>
<time>2022-01-17T09:59:44.101Z</time>
</trkpt>
<trkpt lat="31.7971400" lon="35.0008500">
<ele>345.860016</ele>
<time>2022-01-17T09:59:44.101Z</time>
</trkpt>
<trkpt lat="31.7970400" lon="35.0008200">
<ele>347.970001</ele>
<time>2022-01-17T09:59:44.101Z</time>
</trkpt>
<trkpt lat="31.7970400" lon="35.0008200">
<ele>347.970001</ele>
<time>2022-01-17T09:59:44.101Z</time>
</trkpt>
<trkpt lat="31.7970400" lon="35.0008200">
<ele>347.970001</ele>
<time>2022-01-17T09:59:44.101Z</time>
</trkpt>
<trkpt lat="31.7967600" lon="35.0007400">
<ele>352.880005</ele>
<time>2022-01-17T09:59:44.101Z</time>
</trkpt>
<trkpt lat="31.7966600" lon="35.0007100">
<ele>354.589996</ele>
<time>2022-01-17T09:59:44.101Z</time>
</trkpt>
<trkpt lat="31.7963600" lon="35.0005400">
<ele>360.070007</ele>
<time>2022-01-17T09:59:44.101Z</time>
</trkpt>
<trkpt lat="31.7960100" lon="35.0004100">
<ele>359.470001</ele>
<time>2022-01-17T09:59:44.101Z</time>
</trkpt>
<trkpt lat="31.7958400" lon="35.0003500">
<ele>357.139984</ele>
<time>2022-01-17T09:59:44.101Z</time>
</trkpt>
<trkpt lat="31.7955200" lon="35.0004300">
<ele>360.179993</ele>
<time>2022-01-17T09:59:44.101Z</time>
</trkpt>
<trkpt lat="31.7949600" lon="35.0004600">
<ele>351.090027</ele>
<time>2022-01-17T09:59:44.101Z</time>
</trkpt>
<trkpt lat="31.7947900" lon="35.0005000">
<ele>349.630005</ele>
<time>2022-01-17T09:59:44.101Z</time>
</trkpt>
<trkpt lat="31.7947900" lon="35.0005000">
<ele>349.630005</ele>
<time>2022-01-17T09:59:44.101Z</time>
</trkpt>
<trkpt lat="31.7947900" lon="35.0005000">
<ele>349.630005</ele>
<time>2022-01-17T09:59:44.101Z</time>
</trkpt>
<trkpt lat="31.7947900" lon="35.0005000">
<ele>349.630005</ele>
<time>2022-01-17T09:59:44.101Z</time>
</trkpt>
<trkpt lat="31.7943900" lon="35.0006100">
<ele>351.549988</ele>
<time>2022-01-17T09:59:44.101Z</time>
</trkpt>
<trkpt lat="31.7943300" lon="35.0006800">
<ele>352.630005</ele>
<time>2022-01-17T09:59:44.101Z</time>
</trkpt>
<trkpt lat="31.7944300" lon="35.0007900">
<ele>352.859985</ele>
<time>2022-01-17T09:59:44.101Z</time>
</trkpt>
<trkpt lat="31.7945300" lon="35.0007900">
<ele>353.419983</ele>
<time>2022-01-17T09:59:44.101Z</time>
</trkpt>
<trkpt lat="31.7949100" lon="35.0006700">
<ele>355.609985</ele>
<time>2022-01-17T09:59:44.101Z</time>
</trkpt>
<trkpt lat="31.7950500" lon="35.0006400">
<ele>357.500000</ele>
<time>2022-01-17T09:59:44.101Z</time>
</trkpt>
<trkpt lat="31.7953200" lon="35.0006500">
<ele>365.040009</ele>
<time>2022-01-17T09:59:44.101Z</time>
</trkpt>
<trkpt lat="31.7954100" lon="35.0006700">
<ele>366.980011</ele>
<time>2022-01-17T09:59:44.101Z</time>
</trkpt>
<trkpt lat="31.7956600" lon="35.0007900">
<ele>372.750000</ele>
<time>2022-01-17T09:59:44.101Z</time>
</trkpt>
<trkpt lat="31.7958200" lon="35.0009200">
<ele>374.619995</ele>
<time>2022-01-17T09:59:44.101Z</time>
</trkpt>
<trkpt lat="31.7958800" lon="35.0010100">
<ele>374.489990</ele>
<time>2022-01-17T09:59:44.101Z</time>
</trkpt>
<trkpt lat="31.7959200" lon="35.0011100">
<ele>374.429993</ele>
<time>2022-01-17T09:59:44.101Z</time>
</trkpt>
<trkpt lat="31.7959100" lon="35.0012600">
<ele>374.619995</ele>
<time>2022-01-17T09:59:44.101Z</time>
</trkpt>
<trkpt lat="31.7958100" lon="35.0015000">
<ele>377.070007</ele>
<time>2022-01-17T09:59:44.101Z</time>
</trkpt>
<trkpt lat="31.7956600" lon="35.0017200">
<ele>376.410004</ele>
<time>2022-01-17T09:59:44.101Z</time>
</trkpt>
<trkpt lat="31.7949500" lon="35.0024600">
<ele>379.660004</ele>
<time>2022-01-17T09:59:44.101Z</time>
</trkpt>
<trkpt lat="31.7949500" lon="35.0024600">
<ele>379.660004</ele>
<time>2022-01-17T09:59:44.101Z</time>
</trkpt>
<trkpt lat="31.7948900" lon="35.0025100">
<ele>380.120026</ele>
<time>2022-01-17T09:59:44.101Z</time>
</trkpt>
<trkpt lat="31.7946200" lon="35.0027600">
<ele>383.059998</ele>
<time>2022-01-17T09:59:44.101Z</time>
</trkpt>
<trkpt lat="31.7944900" lon="35.0029100">
<ele>384.350006</ele>
<time>2022-01-17T09:59:44.101Z</time>
</trkpt>
<trkpt lat="31.7944100" lon="35.0030200">
<ele>385.019989</ele>
<time>2022-01-17T09:59:44.101Z</time>
</trkpt>
<trkpt lat="31.7940800" lon="35.0036500">
<ele>384.860016</ele>
<time>2022-01-17T09:59:44.101Z</time>
</trkpt>
<trkpt lat="31.7940000" lon="35.0038400">
<ele>382.000000</ele>
<time>2022-01-17T09:59:44.101Z</time>
</trkpt>
<trkpt lat="31.7939100" lon="35.0040200">
<ele>378.539978</ele>
<time>2022-01-17T09:59:44.101Z</time>
</trkpt>
<trkpt lat="31.7935800" lon="35.0044700">
<ele>373.250000</ele>
<time>2022-01-17T09:59:44.101Z</time>
</trkpt>
<trkpt lat="31.7935500" lon="35.0044700">
<ele>373.390015</ele>
<time>2022-01-17T09:59:44.101Z</time>
</trkpt>
<trkpt lat="31.7935200" lon="35.0044800">
<ele>373.619995</ele>
<time>2022-01-17T09:59:44.101Z</time>
</trkpt>
<trkpt lat="31.7933700" lon="35.0045200">
<ele>375.079987</ele>
<time>2022-01-17T09:59:44.101Z</time>
</trkpt>
<trkpt lat="31.7932000" lon="35.0045800">
<ele>375.739990</ele>
<time>2022-01-17T09:59:44.101Z</time>
</trkpt>
<trkpt lat="31.7930900" lon="35.0045500">
<ele>374.899994</ele>
<time>2022-01-17T09:59:44.101Z</time>
</trkpt>
<trkpt lat="31.7930600" lon="35.0046500">
<ele>375.519989</ele>
<time>2022-01-17T09:59:44.101Z</time>
</trkpt>
<trkpt lat="31.7930600" lon="35.0046500">
<ele>375.519989</ele>
<time>2022-01-17T09:59:44.101Z</time>
</trkpt>
<trkpt lat="31.7930600" lon="35.0046500">
<ele>375.519989</ele>
<time>2022-01-17T09:59:44.101Z</time>
</trkpt>
<trkpt lat="31.7929300" lon="35.0051800">
<ele>375.199982</ele>
<time>2022-01-17T09:59:44.101Z</time>
</trkpt>
<trkpt lat="31.7927400" lon="35.0053800">
<ele>374.910004</ele>
<time>2022-01-17T09:59:44.101Z</time>
</trkpt>
<trkpt lat="31.7927200" lon="35.0054100">
<ele>374.890015</ele>
<time>2022-01-17T09:59:44.101Z</time>
</trkpt>
<trkpt lat="31.7914600" lon="35.0065900">
<ele>376.579987</ele>
<time>2022-01-17T09:59:44.101Z</time>
</trkpt>
<trkpt lat="31.7914600" lon="35.0065900">
<ele>376.579987</ele>
<time>2022-01-17T09:59:44.101Z</time>
</trkpt>
<trkpt lat="31.7914600" lon="35.0065900">
<ele>376.579987</ele>
<time>2022-01-17T09:59:44.101Z</time>
</trkpt>
<trkpt lat="31.7914100" lon="35.0066400">
<ele>376.880005</ele>
<time>2022-01-17T09:59:44.101Z</time>
</trkpt>
<trkpt lat="31.7910800" lon="35.0069500">
<ele>370.539978</ele>
<time>2022-01-17T09:59:44.101Z</time>
</trkpt>
<trkpt lat="31.7907300" lon="35.0072000">
<ele>368.929993</ele>
<time>2022-01-17T09:59:44.101Z</time>
</trkpt>
<trkpt lat="31.7905600" lon="35.0073500">
<ele>370.369995</ele>
<time>2022-01-17T09:59:44.101Z</time>
</trkpt>
<trkpt lat="31.7902400" lon="35.0078800">
<ele>372.509979</ele>
<time>2022-01-17T09:59:44.101Z</time>
</trkpt>
<trkpt lat="31.7900400" lon="35.0081700">
<ele>372.559998</ele>
<time>2022-01-17T09:59:44.101Z</time>
</trkpt>
<trkpt lat="31.7899000" lon="35.0083600">
<ele>372.059998</ele>
<time>2022-01-17T09:59:44.101Z</time>
</trkpt>
<trkpt lat="31.7897800" lon="35.0084600">
<ele>372.089996</ele>
<time>2022-01-17T09:59:44.101Z</time>
</trkpt>
<trkpt lat="31.7895900" lon="35.0085500">
<ele>371.689972</ele>
<time>2022-01-17T09:59:44.101Z</time>
</trkpt>
<trkpt lat="31.7895000" lon="35.0085800">
<ele>371.730011</ele>
<time>2022-01-17T09:59:44.101Z</time>
</trkpt>
<trkpt lat="31.7890900" lon="35.0087000">
<ele>363.330017</ele>
<time>2022-01-17T09:59:44.106Z</time>
</trkpt>
<trkpt lat="31.7886900" lon="35.0088600">
<ele>358.840027</ele>
<time>2022-01-17T09:59:44.106Z</time>
</trkpt>
<trkpt lat="31.7885200" lon="35.0089100">
<ele>356.639984</ele>
<time>2022-01-17T09:59:44.106Z</time>
</trkpt>
<trkpt lat="31.7880900" lon="35.0089800">
<ele>353.289978</ele>
<time>2022-01-17T09:59:44.106Z</time>
</trkpt>
<trkpt lat="31.7877500" lon="35.0091200">
<ele>354.890015</ele>
<time>2022-01-17T09:59:44.106Z</time>
</trkpt>
<trkpt lat="31.7876200" lon="35.0091500">
<ele>356.079987</ele>
<time>2022-01-17T09:59:44.106Z</time>
</trkpt>
<trkpt lat="31.7874900" lon="35.0091600">
<ele>356.749969</ele>
<time>2022-01-17T09:59:44.106Z</time>
</trkpt>
<trkpt lat="31.7872800" lon="35.0091300">
<ele>355.540009</ele>
<time>2022-01-17T09:59:44.106Z</time>
</trkpt>
<trkpt lat="31.7869000" lon="35.0090300">
<ele>355.220001</ele>
<time>2022-01-17T09:59:44.107Z</time>
</trkpt>
<trkpt lat="31.7863600" lon="35.0089300">
<ele>344.020020</ele>
<time>2022-01-17T09:59:44.107Z</time>
</trkpt>
<trkpt lat="31.7859500" lon="35.0088900">
<ele>343.179993</ele>
<time>2022-01-17T09:59:44.107Z</time>
</trkpt>
<trkpt lat="31.7856700" lon="35.0089400">
<ele>342.779999</ele>
<time>2022-01-17T09:59:44.107Z</time>
</trkpt>
<trkpt lat="31.7855000" lon="35.0090100">
<ele>343.359985</ele>
<time>2022-01-17T09:59:44.107Z</time>
</trkpt>
<trkpt lat="31.7853400" lon="35.0091100">
<ele>346.510010</ele>
<time>2022-01-17T09:59:44.107Z</time>
</trkpt>
<trkpt lat="31.7852100" lon="35.0092200">
<ele>347.880005</ele>
<time>2022-01-17T09:59:44.107Z</time>
</trkpt>
<trkpt lat="31.7851500" lon="35.0093000">
<ele>348.600006</ele>
<time>2022-01-17T09:59:44.107Z</time>
</trkpt>
<trkpt lat="31.7850200" lon="35.0095400">
<ele>351.050018</ele>
<time>2022-01-17T09:59:44.107Z</time>
</trkpt>
<trkpt lat="31.7850200" lon="35.0095400">
<ele>351.050018</ele>
<time>2022-01-17T09:59:44.107Z</time>
</trkpt>
<trkpt lat="31.7850200" lon="35.0095400">
<ele>351.050018</ele>
<time>2022-01-17T09:59:44.107Z</time>
</trkpt>
<trkpt lat="31.7850200" lon="35.0095400">
<ele>351.050018</ele>
<time>2022-01-17T09:59:44.107Z</time>
</trkpt>
<trkpt lat="31.7850200" lon="35.0095600">
<ele>351.390015</ele>
<time>2022-01-17T09:59:44.107Z</time>
</trkpt>
<trkpt lat="31.7849900" lon="35.0096800">
<ele>353.010010</ele>
<time>2022-01-17T09:59:44.107Z</time>
</trkpt>
<trkpt lat="31.7849400" lon="35.0100100">
<ele>355.989990</ele>
<time>2022-01-17T09:59:44.107Z</time>
</trkpt>
<trkpt lat="31.7848900" lon="35.0106900">
<ele>355.500000</ele>
<time>2022-01-17T09:59:44.107Z</time>
</trkpt>
<trkpt lat="31.7849000" lon="35.0107900">
<ele>356.040009</ele>
<time>2022-01-17T09:59:44.107Z</time>
</trkpt>
<trkpt lat="31.7849500" lon="35.0110100">
<ele>358.889984</ele>
<time>2022-01-17T09:59:44.107Z</time>
</trkpt>
<trkpt lat="31.7850100" lon="35.0111300">
<ele>360.380005</ele>
<time>2022-01-17T09:59:44.107Z</time>
</trkpt>
<trkpt lat="31.7851200" lon="35.0112400">
<ele>356.020020</ele>
<time>2022-01-17T09:59:44.107Z</time>
</trkpt>
<trkpt lat="31.7852700" lon="35.0113200">
<ele>351.850006</ele>
<time>2022-01-17T09:59:44.107Z</time>
</trkpt>
<trkpt lat="31.7854600" lon="35.0113700">
<ele>350.389984</ele>
<time>2022-01-17T09:59:44.107Z</time>
</trkpt>
<trkpt lat="31.7855200" lon="35.0113700">
<ele>350.360016</ele>
<time>2022-01-17T09:59:44.107Z</time>
</trkpt>
<trkpt lat="31.7857400" lon="35.0112900">
<ele>351.350006</ele>
<time>2022-01-17T09:59:44.107Z</time>
</trkpt>
<trkpt lat="31.7859200" lon="35.0111800">
<ele>351.799988</ele>
<time>2022-01-17T09:59:44.107Z</time>
</trkpt>
<trkpt lat="31.7860800" lon="35.0110500">
<ele>351.860016</ele>
<time>2022-01-17T09:59:44.107Z</time>
</trkpt>
<trkpt lat="31.7863300" lon="35.0107800">
<ele>354.059998</ele>
<time>2022-01-17T09:59:44.107Z</time>
</trkpt>
<trkpt lat="31.7864500" lon="35.0106900">
<ele>353.390015</ele>
<time>2022-01-17T09:59:44.107Z</time>
</trkpt>
<trkpt lat="31.7865500" lon="35.0106200">
<ele>353.419983</ele>
<time>2022-01-17T09:59:44.107Z</time>
</trkpt>
<trkpt lat="31.7867700" lon="35.0105400">
<ele>354.070007</ele>
<time>2022-01-17T09:59:44.107Z</time>
</trkpt>
<trkpt lat="31.7870700" lon="35.0105100">
<ele>354.980011</ele>
<time>2022-01-17T09:59:44.107Z</time>
</trkpt>
<trkpt lat="31.7876500" lon="35.0105400">
<ele>353.350006</ele>
<time>2022-01-17T09:59:44.107Z</time>
</trkpt>
<trkpt lat="31.7886500" lon="35.0104400">
<ele>353.400024</ele>
<time>2022-01-17T09:59:44.107Z</time>
</trkpt>
<trkpt lat="31.7888000" lon="35.0104600">
<ele>351.220001</ele>
<time>2022-01-17T09:59:44.107Z</time>
</trkpt>
<trkpt lat="31.7889800" lon="35.0105200">
<ele>350.450012</ele>
<time>2022-01-17T09:59:44.107Z</time>
</trkpt>
<trkpt lat="31.7892000" lon="35.0105600">
<ele>352.760010</ele>
<time>2022-01-17T09:59:44.107Z</time>
</trkpt>
<trkpt lat="31.7892000" lon="35.0105600">
<ele>352.760010</ele>
<time>2022-01-17T09:59:44.107Z</time>
</trkpt>
<trkpt lat="31.7892000" lon="35.0105600">
<ele>352.760010</ele>
<time>2022-01-17T09:59:44.107Z</time>
</trkpt>
<trkpt lat="31.7894500" lon="35.0106000">
<ele>351.140015</ele>
<time>2022-01-17T09:59:44.107Z</time>
</trkpt>
<trkpt lat="31.7897500" lon="35.0105200">
<ele>349.250000</ele>
<time>2022-01-17T09:59:44.107Z</time>
</trkpt>
<trkpt lat="31.7899400" lon="35.0104000">
<ele>350.209991</ele>
<time>2022-01-17T09:59:44.107Z</time>
</trkpt>
<trkpt lat="31.7901500" lon="35.0102800">
<ele>353.480011</ele>
<time>2022-01-17T09:59:44.107Z</time>
</trkpt>
<trkpt lat="31.7902500" lon="35.0102600">
<ele>354.290009</ele>
<time>2022-01-17T09:59:44.107Z</time>
</trkpt>
<trkpt lat="31.7905100" lon="35.0102900">
<ele>354.560028</ele>
<time>2022-01-17T09:59:44.107Z</time>
</trkpt>
<trkpt lat="31.7912200" lon="35.0104600">
<ele>353.339996</ele>
<time>2022-01-17T09:59:44.107Z</time>
</trkpt>
<trkpt lat="31.7919500" lon="35.0107000">
<ele>349.910004</ele>
<time>2022-01-17T09:59:44.107Z</time>
</trkpt>
<trkpt lat="31.7921700" lon="35.0107500">
<ele>350.509979</ele>
<time>2022-01-17T09:59:44.109Z</time>
</trkpt>
<trkpt lat="31.7924300" lon="35.0108600">
<ele>349.299988</ele>
<time>2022-01-17T09:59:44.109Z</time>
</trkpt>
<trkpt lat="31.7925900" lon="35.0110400">
<ele>349.500000</ele>
<time>2022-01-17T09:59:44.109Z</time>
</trkpt>
<trkpt lat="31.7926800" lon="35.0110500">
<ele>349.349976</ele>
<time>2022-01-17T09:59:44.109Z</time>
</trkpt>
<trkpt lat="31.7929600" lon="35.0110100">
<ele>346.989990</ele>
<time>2022-01-17T09:59:44.109Z</time>
</trkpt>
<trkpt lat="31.7930500" lon="35.0110200">
<ele>346.410004</ele>
<time>2022-01-17T09:59:44.109Z</time>
</trkpt>
<trkpt lat="31.7932000" lon="35.0110800">
<ele>344.670013</ele>
<time>2022-01-17T09:59:44.109Z</time>
</trkpt>
<trkpt lat="31.7935900" lon="35.0112400">
<ele>342.400024</ele>
<time>2022-01-17T09:59:44.109Z</time>
</trkpt>
<trkpt lat="31.7940000" lon="35.0112600">
<ele>344.540009</ele>
<time>2022-01-17T09:59:44.109Z</time>
</trkpt>
<trkpt lat="31.7941400" lon="35.0112500">
<ele>344.500000</ele>
<time>2022-01-17T09:59:44.109Z</time>
</trkpt>
<trkpt lat="31.7942200" lon="35.0112100">
<ele>343.809998</ele>
<time>2022-01-17T09:59:44.109Z</time>
</trkpt>
<trkpt lat="31.7943900" lon="35.0109900">
<ele>340.679993</ele>
<time>2022-01-17T09:59:44.109Z</time>
</trkpt>
<trkpt lat="31.7944500" lon="35.0109600">
<ele>340.180023</ele>
<time>2022-01-17T09:59:44.109Z</time>
</trkpt>
<trkpt lat="31.7945200" lon="35.0109600">
<ele>341.399994</ele>
<time>2022-01-17T09:59:44.109Z</time>
</trkpt>
<trkpt lat="31.7949200" lon="35.0109900">
<ele>341.479980</ele>
<time>2022-01-17T09:59:44.109Z</time>
</trkpt>
<trkpt lat="31.7950700" lon="35.0110200">
<ele>339.410004</ele>
<time>2022-01-17T09:59:44.109Z</time>
</trkpt>
<trkpt lat="31.7951600" lon="35.0110600">
<ele>338.479980</ele>
<time>2022-01-17T09:59:44.109Z</time>
</trkpt>
<trkpt lat="31.7953900" lon="35.0112100">
<ele>335.810028</ele>
<time>2022-01-17T09:59:44.109Z</time>
</trkpt>
<trkpt lat="31.7953900" lon="35.0112100">
<ele>335.810028</ele>
<time>2022-01-17T09:59:44.109Z</time>
</trkpt>
<trkpt lat="31.7955900" lon="35.0113300">
<ele>332.090027</ele>
<time>2022-01-17T09:59:44.109Z</time>
</trkpt>
<trkpt lat="31.7956900" lon="35.0113700">
<ele>329.019989</ele>
<time>2022-01-17T09:59:44.109Z</time>
</trkpt>
<trkpt lat="31.7959000" lon="35.0114200">
<ele>323.659973</ele>
<time>2022-01-17T09:59:44.109Z</time>
</trkpt>
<trkpt lat="31.7960300" lon="35.0114300">
<ele>321.210022</ele>
<time>2022-01-17T09:59:44.109Z</time>
</trkpt>
<trkpt lat="31.7964500" lon="35.0113900">
<ele>320.539978</ele>
<time>2022-01-17T09:59:44.109Z</time>
</trkpt>
<trkpt lat="31.7968700" lon="35.0113700">
<ele>316.679993</ele>
<time>2022-01-17T09:59:44.109Z</time>
</trkpt>
<trkpt lat="31.7972400" lon="35.0112800">
<ele>319.240021</ele>
<time>2022-01-17T09:59:44.109Z</time>
</trkpt>
<trkpt lat="31.7974200" lon="35.0112100">
<ele>316.959991</ele>
<time>2022-01-17T09:59:44.109Z</time>
</trkpt>
<trkpt lat="31.7976200" lon="35.0111900">
<ele>314.880005</ele>
<time>2022-01-17T09:59:44.109Z</time>
</trkpt>
<trkpt lat="31.7979500" lon="35.0113400">
<ele>314.580017</ele>
<time>2022-01-17T09:59:44.109Z</time>
</trkpt>
<trkpt lat="31.7982600" lon="35.0114100">
<ele>312.510010</ele>
<time>2022-01-17T09:59:44.109Z</time>
</trkpt>
<trkpt lat="31.7986700" lon="35.0117900">
<ele>312.829987</ele>
<time>2022-01-17T09:59:44.109Z</time>
</trkpt>
<trkpt lat="31.7987800" lon="35.0118800">
<ele>313.540009</ele>
<time>2022-01-17T09:59:44.109Z</time>
</trkpt>
<trkpt lat="31.7991300" lon="35.0121500">
<ele>307.989990</ele>
<time>2022-01-17T09:59:44.109Z</time>
</trkpt>
<trkpt lat="31.7991900" lon="35.0122600">
<ele>304.750000</ele>
<time>2022-01-17T09:59:44.109Z</time>
</trkpt>
<trkpt lat="31.7992100" lon="35.0122500">
<ele>304.600006</ele>
<time>2022-01-17T09:59:44.109Z</time>
</trkpt>
<trkpt lat="31.7992200" lon="35.0122400">
<ele>304.639984</ele>
<time>2022-01-17T09:59:44.109Z</time>
</trkpt>
<trkpt lat="31.7992400" lon="35.0122400">
<ele>304.279999</ele>
<time>2022-01-17T09:59:44.109Z</time>
</trkpt>
<trkpt lat="31.7992500" lon="35.0122400">
<ele>304.100006</ele>
<time>2022-01-17T09:59:44.109Z</time>
</trkpt>
<trkpt lat="31.7992700" lon="35.0122400">
<ele>303.730011</ele>
<time>2022-01-17T09:59:44.109Z</time>
</trkpt>
<trkpt lat="31.7992800" lon="35.0122400">
<ele>303.549988</ele>
<time>2022-01-17T09:59:44.109Z</time>
</trkpt>
<trkpt lat="31.7993000" lon="35.0122500">
<ele>302.949982</ele>
<time>2022-01-17T09:59:44.109Z</time>
</trkpt>
<trkpt lat="31.7993100" lon="35.0122600">
<ele>302.529999</ele>
<time>2022-01-17T09:59:44.109Z</time>
</trkpt>
<trkpt lat="31.7993200" lon="35.0122700">
<ele>302.110016</ele>
<time>2022-01-17T09:59:44.109Z</time>
</trkpt>
<trkpt lat="31.7993300" lon="35.0122800">
<ele>301.690002</ele>
<time>2022-01-17T09:59:44.109Z</time>
</trkpt>
<trkpt lat="31.7993400" lon="35.0123000">
<ele>301.029999</ele>
<time>2022-01-17T09:59:44.109Z</time>
</trkpt>
<trkpt lat="31.7993500" lon="35.0123200">
<ele>300.359985</ele>
<time>2022-01-17T09:59:44.109Z</time>
</trkpt>
<trkpt lat="31.7993500" lon="35.0123300">
<ele>300.119995</ele>
<time>2022-01-17T09:59:44.109Z</time>
</trkpt>
<trkpt lat="31.7993500" lon="35.0123500">
<ele>299.639984</ele>
<time>2022-01-17T09:59:44.109Z</time>
</trkpt>
<trkpt lat="31.7995200" lon="35.0123100">
<ele>297.510010</ele>
<time>2022-01-17T09:59:44.109Z</time>
</trkpt>
<trkpt lat="31.7996300" lon="35.0122800">
<ele>296.339996</ele>
<time>2022-01-17T09:59:44.109Z</time>
</trkpt>
<trkpt lat="31.7997700" lon="35.0122700">
<ele>295.079987</ele>
<time>2022-01-17T09:59:44.109Z</time>
</trkpt>
<trkpt lat="31.7997700" lon="35.0122700">
<ele>295.079987</ele>
<time>2022-01-17T09:59:44.109Z</time>
</trkpt>
<trkpt lat="31.7997700" lon="35.0122700">
<ele>295.079987</ele>
<time>2022-01-17T09:59:44.109Z</time>
</trkpt>
<trkpt lat="31.8009000" lon="35.0121900">
<ele>290.510010</ele>
<time>2022-01-17T09:59:44.109Z</time>
</trkpt>
<trkpt lat="31.8011200" lon="35.0121300">
<ele>287.290009</ele>
<time>2022-01-17T09:59:44.109Z</time>
</trkpt>
<trkpt lat="31.8013700" lon="35.0120200">
<ele>288.059998</ele>
<time>2022-01-17T09:59:44.109Z</time>
</trkpt>
<trkpt lat="31.8015000" lon="35.0119300">
<ele>288.299988</ele>
<time>2022-01-17T09:59:44.109Z</time>
</trkpt>
<trkpt lat="31.8015700" lon="35.0118800">
<ele>288.160004</ele>
<time>2022-01-17T09:59:44.109Z</time>
</trkpt>
<trkpt lat="31.8016100" lon="35.0118500">
<ele>288.089996</ele>
<time>2022-01-17T09:59:44.109Z</time>
</trkpt>
<trkpt lat="31.8016900" lon="35.0117400">
<ele>288.089996</ele>
<time>2022-01-17T09:59:44.109Z</time>
</trkpt>
<trkpt lat="31.8017500" lon="35.0116200">
<ele>287.899994</ele>
<time>2022-01-17T09:59:44.109Z</time>
</trkpt>
<trkpt lat="31.8017800" lon="35.0116300">
<ele>287.480011</ele>
<time>2022-01-17T09:59:44.109Z</time>
</trkpt>
<trkpt lat="31.8018100" lon="35.0116300">
<ele>287.070007</ele>
<time>2022-01-17T09:59:44.109Z</time>
</trkpt>
<trkpt lat="31.8018400" lon="35.0116200">
<ele>286.709991</ele>
<time>2022-01-17T09:59:44.109Z</time>
</trkpt>
<trkpt lat="31.8018600" lon="35.0116100">
<ele>286.500000</ele>
<time>2022-01-17T09:59:44.109Z</time>
</trkpt>
<trkpt lat="31.8018600" lon="35.0116100">
<ele>286.500000</ele>
<time>2022-01-17T09:59:44.109Z</time>
</trkpt>
<trkpt lat="31.8018600" lon="35.0116100">
<ele>286.500000</ele>
<time>2022-01-17T09:59:44.109Z</time>
</trkpt>
<trkpt lat="31.8018600" lon="35.0116000">
<ele>286.550018</ele>
<time>2022-01-17T09:59:44.109Z</time>
</trkpt>
<trkpt lat="31.8018900" lon="35.0115800">
<ele>286.290009</ele>
<time>2022-01-17T09:59:44.109Z</time>
</trkpt>
<trkpt lat="31.8019000" lon="35.0115500">
<ele>286.350006</ele>
<time>2022-01-17T09:59:44.109Z</time>
</trkpt>
<trkpt lat="31.8019000" lon="35.0115100">
<ele>286.589996</ele>
<time>2022-01-17T09:59:44.109Z</time>
</trkpt>
<trkpt lat="31.8021400" lon="35.0114600">
<ele>285.600006</ele>
<time>2022-01-17T09:59:44.109Z</time>
</trkpt>
<trkpt lat="31.8022700" lon="35.0113300">
<ele>285.010010</ele>
<time>2022-01-17T09:59:44.109Z</time>
</trkpt>
<trkpt lat="31.8023600" lon="35.0112300">
<ele>283.100006</ele>
<time>2022-01-17T09:59:44.109Z</time>
</trkpt>
<trkpt lat="31.8027000" lon="35.0107100">
<ele>279.039978</ele>
<time>2022-01-17T09:59:44.112Z</time>
</trkpt>
<trkpt lat="31.8027400" lon="35.0107000">
<ele>277.739990</ele>
<time>2022-01-17T09:59:44.112Z</time>
</trkpt>
<trkpt lat="31.8027500" lon="35.0104800">
<ele>276.970001</ele>
<time>2022-01-17T09:59:44.112Z</time>
</trkpt>
<trkpt lat="31.8027400" lon="35.0103300">
<ele>277.250000</ele>
<time>2022-01-17T09:59:44.112Z</time>
</trkpt>
<trkpt lat="31.8026700" lon="35.0099700">
<ele>278.149994</ele>
<time>2022-01-17T09:59:44.112Z</time>
</trkpt>
<trkpt lat="31.8026500" lon="35.0091100">
<ele>278.029999</ele>
<time>2022-01-17T09:59:44.112Z</time>
</trkpt>
<trkpt lat="31.8026500" lon="35.0091100">
<ele>278.029999</ele>
<time>2022-01-17T09:59:44.112Z</time>
</trkpt>
<trkpt lat="31.8026500" lon="35.0091100">
<ele>278.029999</ele>
<time>2022-01-17T09:59:44.112Z</time>
</trkpt>
<trkpt lat="31.8026500" lon="35.0091100">
<ele>278.029999</ele>
<time>2022-01-17T09:59:44.112Z</time>
</trkpt>
<trkpt lat="31.8026500" lon="35.0090500">
<ele>277.910004</ele>
<time>2022-01-17T09:59:44.112Z</time>
</trkpt>
<trkpt lat="31.8025200" lon="35.0084600">
<ele>280.029999</ele>
<time>2022-01-17T09:59:44.112Z</time>
</trkpt>
<trkpt lat="31.8025200" lon="35.0083400">
<ele>279.660004</ele>
<time>2022-01-17T09:59:44.112Z</time>
</trkpt>
<trkpt lat="31.8025200" lon="35.0083000">
<ele>279.880005</ele>
<time>2022-01-17T09:59:44.112Z</time>
</trkpt>
<trkpt lat="31.8025600" lon="35.0081700">
<ele>280.100006</ele>
<time>2022-01-17T09:59:44.112Z</time>
</trkpt>
<trkpt lat="31.8025900" lon="35.0081100">
<ele>279.989990</ele>
<time>2022-01-17T09:59:44.112Z</time>
</trkpt>
<trkpt lat="31.8026900" lon="35.0080600">
<ele>278.549988</ele>
<time>2022-01-17T09:59:44.112Z</time>
</trkpt>
<trkpt lat="31.8029700" lon="35.0079700">
<ele>273.110016</ele>
<time>2022-01-17T09:59:44.112Z</time>
</trkpt>
<trkpt lat="31.8035500" lon="35.0077200">
<ele>268.140015</ele>
<time>2022-01-17T09:59:44.112Z</time>
</trkpt>
<trkpt lat="31.8037100" lon="35.0076300">
<ele>266.010010</ele>
<time>2022-01-17T09:59:44.112Z</time>
</trkpt>
<trkpt lat="31.8040900" lon="35.0073700">
<ele>264.260010</ele>
<time>2022-01-17T09:59:44.112Z</time>
</trkpt>
<trkpt lat="31.8042500" lon="35.0072200">
<ele>263.709991</ele>
<time>2022-01-17T09:59:44.112Z</time>
</trkpt>
<trkpt lat="31.8043100" lon="35.0071500">
<ele>263.739990</ele>
<time>2022-01-17T09:59:44.112Z</time>
</trkpt>
<trkpt lat="31.8043100" lon="35.0071500">
<ele>263.739990</ele>
<time>2022-01-17T09:59:44.112Z</time>
</trkpt>
<trkpt lat="31.8045900" lon="35.0067700">
<ele>263.260010</ele>
<time>2022-01-17T09:59:44.112Z</time>
</trkpt>
<trkpt lat="31.8047800" lon="35.0064400">
<ele>264.750000</ele>
<time>2022-01-17T09:59:44.112Z</time>
</trkpt>
<trkpt lat="31.8048800" lon="35.0061400">
<ele>265.579987</ele>
<time>2022-01-17T09:59:44.112Z</time>
</trkpt>
<trkpt lat="31.8049000" lon="35.0059600">
<ele>265.440002</ele>
<time>2022-01-17T09:59:44.112Z</time>
</trkpt>
<trkpt lat="31.8049200" lon="35.0057000">
<ele>265.429993</ele>
<time>2022-01-17T09:59:44.112Z</time>
</trkpt>
<trkpt lat="31.8049000" lon="35.0054100">
<ele>266.350006</ele>
<time>2022-01-17T09:59:44.112Z</time>
</trkpt>
<trkpt lat="31.8049000" lon="35.0052000">
<ele>266.519989</ele>
<time>2022-01-17T09:59:44.112Z</time>
</trkpt>
<trkpt lat="31.8048600" lon="35.0049200">
<ele>267.809998</ele>
<time>2022-01-17T09:59:44.112Z</time>
</trkpt>
<trkpt lat="31.8048500" lon="35.0048100">
<ele>268.410004</ele>
<time>2022-01-17T09:59:44.112Z</time>
</trkpt>
<trkpt lat="31.8048600" lon="35.0046700">
<ele>269.549988</ele>
<time>2022-01-17T09:59:44.112Z</time>
</trkpt>
<trkpt lat="31.8048900" lon="35.0045700">
<ele>271.160004</ele>
<time>2022-01-17T09:59:44.112Z</time>
</trkpt>
<trkpt lat="31.8049700" lon="35.0044500">
<ele>273.079987</ele>
<time>2022-01-17T09:59:44.112Z</time>
</trkpt>
<trkpt lat="31.8051200" lon="35.0043600">
<ele>272.960022</ele>
<time>2022-01-17T09:59:44.112Z</time>
</trkpt>
<trkpt lat="31.8054700" lon="35.0042500">
<ele>270.580017</ele>
<time>2022-01-17T09:59:44.112Z</time>
</trkpt>
<trkpt lat="31.8056100" lon="35.0042200">
<ele>270.230011</ele>
<time>2022-01-17T09:59:44.112Z</time>
</trkpt>
<trkpt lat="31.8057200" lon="35.0042200">
<ele>269.360016</ele>
<time>2022-01-17T09:59:44.112Z</time>
</trkpt>
<trkpt lat="31.8058600" lon="35.0042400">
<ele>267.250000</ele>
<time>2022-01-17T09:59:44.112Z</time>
</trkpt>
<trkpt lat="31.8063900" lon="35.0044300">
<ele>260.040009</ele>
<time>2022-01-17T09:59:44.112Z</time>
</trkpt>
<trkpt lat="31.8066700" lon="35.0045000">
<ele>255.929993</ele>
<time>2022-01-17T09:59:44.112Z</time>
</trkpt>
<trkpt lat="31.8067000" lon="35.0046500">
<ele>252.669998</ele>
<time>2022-01-17T09:59:44.112Z</time>
</trkpt>
<trkpt lat="31.8067600" lon="35.0048100">
<ele>251.060013</ele>
<time>2022-01-17T09:59:44.112Z</time>
</trkpt>
<trkpt lat="31.8068500" lon="35.0049400">
<ele>251.550003</ele>
<time>2022-01-17T09:59:44.112Z</time>
</trkpt>
<trkpt lat="31.8069100" lon="35.0049900">
<ele>251.960007</ele>
<time>2022-01-17T09:59:44.112Z</time>
</trkpt>
<trkpt lat="31.8069100" lon="35.0049900">
<ele>251.960007</ele>
<time>2022-01-17T09:59:44.112Z</time>
</trkpt>
<trkpt lat="31.8069100" lon="35.0049900">
<ele>251.960007</ele>
<time>2022-01-17T09:59:44.112Z</time>
</trkpt>
<trkpt lat="31.8074600" lon="35.0047000">
<ele>250.740005</ele>
<time>2022-01-17T09:59:44.112Z</time>
</trkpt>
<trkpt lat="31.8076700" lon="35.0047000">
<ele>255.040009</ele>
<time>2022-01-17T09:59:44.112Z</time>
</trkpt>
<trkpt lat="31.8078400" lon="35.0047500">
<ele>258.010010</ele>
<time>2022-01-17T09:59:44.112Z</time>
</trkpt>
<trkpt lat="31.8080000" lon="35.0048600">
<ele>258.089996</ele>
<time>2022-01-17T09:59:44.112Z</time>
</trkpt>
<trkpt lat="31.8081800" lon="35.0049500">
<ele>257.200012</ele>
<time>2022-01-17T09:59:44.112Z</time>
</trkpt>
<trkpt lat="31.8082600" lon="35.0049900">
<ele>256.709991</ele>
<time>2022-01-17T09:59:44.112Z</time>
</trkpt>
<trkpt lat="31.8086500" lon="35.0049900">
<ele>258.170013</ele>
<time>2022-01-17T09:59:44.112Z</time>
</trkpt>
<trkpt lat="31.8086900" lon="35.0050000">
<ele>258.570007</ele>
<time>2022-01-17T09:59:44.112Z</time>
</trkpt>
<trkpt lat="31.8086900" lon="35.0050000">
<ele>258.570007</ele>
<time>2022-01-17T09:59:44.112Z</time>
</trkpt>
<trkpt lat="31.8086900" lon="35.0050000">
<ele>258.570007</ele>
<time>2022-01-17T09:59:44.112Z</time>
</trkpt>
<trkpt lat="31.8088300" lon="35.0050500">
<ele>259.829987</ele>
<time>2022-01-17T09:59:44.112Z</time>
</trkpt>
<trkpt lat="31.8090600" lon="35.0051600">
<ele>260.410004</ele>
<time>2022-01-17T09:59:44.112Z</time>
</trkpt>
<trkpt lat="31.8092400" lon="35.0051700">
<ele>259.760010</ele>
<time>2022-01-17T09:59:44.112Z</time>
</trkpt>
<trkpt lat="31.8093300" lon="35.0051100">
<ele>258.179993</ele>
<time>2022-01-17T09:59:44.112Z</time>
</trkpt>
<trkpt lat="31.8093900" lon="35.0050500">
<ele>256.970001</ele>
<time>2022-01-17T09:59:44.112Z</time>
</trkpt>
<trkpt lat="31.8095400" lon="35.0047200">
<ele>252.669998</ele>
<time>2022-01-17T09:59:44.112Z</time>
</trkpt>
<trkpt lat="31.8096500" lon="35.0045500">
<ele>252.699997</ele>
<time>2022-01-17T09:59:44.112Z</time>
</trkpt>
<trkpt lat="31.8100700" lon="35.0040300">
<ele>245.649994</ele>
<time>2022-01-17T09:59:44.112Z</time>
</trkpt>
<trkpt lat="31.8101800" lon="35.0039400">
<ele>242.959991</ele>
<time>2022-01-17T09:59:44.112Z</time>
</trkpt>
<trkpt lat="31.8103800" lon="35.0038500">
<ele>243.740005</ele>
<time>2022-01-17T09:59:44.112Z</time>
</trkpt>
<trkpt lat="31.8106900" lon="35.0037500">
<ele>248.479996</ele>
<time>2022-01-17T09:59:44.112Z</time>
</trkpt>
<trkpt lat="31.8107700" lon="35.0037500">
<ele>248.770004</ele>
<time>2022-01-17T09:59:44.112Z</time>
</trkpt>
<trkpt lat="31.8109400" lon="35.0037900">
<ele>250.919998</ele>
<time>2022-01-17T09:59:44.112Z</time>
</trkpt>
<trkpt lat="31.8110400" lon="35.0038500">
<ele>253.370010</ele>
<time>2022-01-17T09:59:44.112Z</time>
</trkpt>
<trkpt lat="31.8112400" lon="35.0040100">
<ele>255.559998</ele>
<time>2022-01-17T09:59:44.112Z</time>
</trkpt>
<trkpt lat="31.8113800" lon="35.0041500">
<ele>255.859985</ele>
<time>2022-01-17T09:59:44.112Z</time>
</trkpt>
<trkpt lat="31.8114600" lon="35.0042400">
<ele>255.580002</ele>
<time>2022-01-17T09:59:44.112Z</time>
</trkpt>
<trkpt lat="31.8115200" lon="35.0043900">
<ele>256.429993</ele>
<time>2022-01-17T09:59:44.112Z</time>
</trkpt>
<trkpt lat="31.8115400" lon="35.0044700">
<ele>257.049988</ele>
<time>2022-01-17T09:59:44.112Z</time>
</trkpt>
<trkpt lat="31.8116100" lon="35.0050600">
<ele>260.079987</ele>
<time>2022-01-17T09:59:44.112Z</time>
</trkpt>
<trkpt lat="31.8116100" lon="35.0050600">
<ele>260.079987</ele>
<time>2022-01-17T09:59:44.112Z</time>
</trkpt>
<trkpt lat="31.8116100" lon="35.0050600">
<ele>260.079987</ele>
<time>2022-01-17T09:59:44.112Z</time>
</trkpt>
<trkpt lat="31.8116100" lon="35.0050600">
<ele>260.079987</ele>
<time>2022-01-17T09:59:44.112Z</time>
</trkpt>
<trkpt lat="31.8116200" lon="35.0051000">
<ele>260.089996</ele>
<time>2022-01-17T09:59:44.112Z</time>
</trkpt>
<trkpt lat="31.8116900" lon="35.0052900">
<ele>259.619995</ele>
<time>2022-01-17T09:59:44.112Z</time>
</trkpt>
<trkpt lat="31.8117900" lon="35.0054100">
<ele>257.540009</ele>
<time>2022-01-17T09:59:44.112Z</time>
</trkpt>
<trkpt lat="31.8119300" lon="35.0054200">
<ele>255.210007</ele>
<time>2022-01-17T09:59:44.112Z</time>
</trkpt>
<trkpt lat="31.8120000" lon="35.0053800">
<ele>255.259995</ele>
<time>2022-01-17T09:59:44.112Z</time>
</trkpt>
<trkpt lat="31.8120700" lon="35.0053700">
<ele>255.340012</ele>
<time>2022-01-17T09:59:44.112Z</time>
</trkpt>
<trkpt lat="31.8121200" lon="35.0053400">
<ele>255.550003</ele>
<time>2022-01-17T09:59:44.112Z</time>
</trkpt>
<trkpt lat="31.8123700" lon="35.0068400">
<ele>261.480011</ele>
<time>2022-01-17T09:59:44.112Z</time>
</trkpt>
<trkpt lat="31.8123400" lon="35.0072300">
<ele>260.979980</ele>
<time>2022-01-17T09:59:44.112Z</time>
</trkpt>
<trkpt lat="31.8123100" lon="35.0080400">
<ele>260.549988</ele>
<time>2022-01-17T09:59:44.112Z</time>
</trkpt>
<trkpt lat="31.8123000" lon="35.0085900">
<ele>260.880005</ele>
<time>2022-01-17T09:59:44.112Z</time>
</trkpt>
<trkpt lat="31.8122700" lon="35.0089200">
<ele>261.950012</ele>
<time>2022-01-17T09:59:44.112Z</time>
</trkpt>
<trkpt lat="31.8122200" lon="35.0098500">
<ele>266.440002</ele>
<time>2022-01-17T09:59:44.112Z</time>
</trkpt>
<trkpt lat="31.8121700" lon="35.0102300">
<ele>267.779999</ele>
<time>2022-01-17T09:59:44.112Z</time>
</trkpt>
<trkpt lat="31.8121400" lon="35.0104800">
<ele>268.979980</ele>
<time>2022-01-17T09:59:44.112Z</time>
</trkpt>
<trkpt lat="31.8121500" lon="35.0105700">
<ele>269.830017</ele>
<time>2022-01-17T09:59:44.112Z</time>
</trkpt>
<trkpt lat="31.8120900" lon="35.0107100">
<ele>270.260010</ele>
<time>2022-01-17T09:59:44.112Z</time>
</trkpt>
<trkpt lat="31.8119800" lon="35.0111200">
<ele>275.480011</ele>
<time>2022-01-17T09:59:44.112Z</time>
</trkpt>
<trkpt lat="31.8117500" lon="35.0121400">
<ele>278.899994</ele>
<time>2022-01-17T09:59:44.112Z</time>
</trkpt>
<trkpt lat="31.8115100" lon="35.0128900">
<ele>276.049988</ele>
<time>2022-01-17T09:59:44.112Z</time>
</trkpt>
<trkpt lat="31.8114600" lon="35.0131200">
<ele>275.829987</ele>
<time>2022-01-17T09:59:44.112Z</time>
</trkpt>
<trkpt lat="31.8114600" lon="35.0131200">
<ele>275.829987</ele>
<time>2022-01-17T09:59:44.112Z</time>
</trkpt>
<trkpt lat="31.8114600" lon="35.0131200">
<ele>275.829987</ele>
<time>2022-01-17T09:59:44.112Z</time>
</trkpt>
<trkpt lat="31.8114600" lon="35.0131200">
<ele>275.829987</ele>
<time>2022-01-17T09:59:44.112Z</time>
</trkpt>
<trkpt lat="31.8114600" lon="35.0131200">
<ele>275.829987</ele>
<time>2022-01-17T09:59:44.112Z</time>
</trkpt>
<trkpt lat="31.8114600" lon="35.0131200">
<ele>275.829987</ele>
<time>2022-01-17T09:59:44.112Z</time>
</trkpt>
<trkpt lat="31.8114500" lon="35.0131700">
<ele>275.750000</ele>
<time>2022-01-17T09:59:44.112Z</time>
</trkpt>
<trkpt lat="31.8114500" lon="35.0131700">
<ele>275.750000</ele>
<time>2022-01-17T09:59:44.112Z</time>
</trkpt>
</trkseg>
</trk>
</gpx>
